Today
| Time | Wind Dr | Wind Spd mph |
Wind Gust mph |
Hum In % |
Humid % |
TempI F |
Temp F |
Raw Bar in |
Tot Rain in |
UV | Solar W/sqm |
DailyRain in |
HourRain in |
24HrRain in |
RainRate in |
|---|---|---|---|---|---|---|---|---|---|---|---|---|---|---|---|
| 05/08/26 12:01:26 AM | 35 | 0.0 | 0.0 | 55 | 76 | 71.9 | 62.0 | 30.002 | 7.26 | 0.0 | 0 | 0.00 | 0.00 | 0.00 | 0.00 |
| 05/08/26 12:02:18 AM | 36 | 0.0 | 0.0 | 55 | 76 | 72.0 | 62.0 | 30.001 | 7.26 | 0.0 | 0 | 0.00 | 0.00 | 0.00 | 0.00 |
| 05/08/26 12:03:30 AM | 35 | 0.0 | 0.0 | 55 | 76 | 71.9 | 62.0 | 30.002 | 7.26 | 0.0 | 0 | 0.00 | 0.00 | 0.00 | 0.00 |
| 05/08/26 12:04:18 AM | 32 | 0.0 | 0.0 | 55 | 76 | 72.0 | 62.0 | 30.002 | 7.26 | 0.0 | 0 | 0.00 | 0.00 | 0.00 | 0.00 |
| 05/08/26 12:05:31 AM | 36 | 0.0 | 0.0 | 55 | 76 | 72.0 | 61.9 | 30.002 | 7.26 | 0.0 | 0 | 0.00 | 0.00 | 0.00 | 0.00 |
| 05/08/26 12:06:22 AM | 34 | 0.0 | 0.0 | 55 | 76 | 72.0 | 61.9 | 30.001 | 7.26 | 0.0 | 0 | 0.00 | 0.00 | 0.00 | 0.00 |
| 05/08/26 12:07:32 AM | 34 | 0.0 | 0.0 | 55 | 76 | 72.0 | 61.9 | 30.003 | 7.26 | 0.0 | 0 | 0.00 | 0.00 | 0.00 | 0.00 |
| 05/08/26 12:08:23 AM | 35 | 0.0 | 0.0 | 55 | 76 | 71.9 | 61.9 | 30.002 | 7.26 | 0.0 | 0 | 0.00 | 0.00 | 0.00 | 0.00 |
| 05/08/26 12:09:33 AM | 35 | 0.0 | 0.0 | 55 | 77 | 71.9 | 61.8 | 30.001 | 7.26 | 0.0 | 0 | 0.00 | 0.00 | 0.00 | 0.00 |
| 05/08/26 12:10:24 AM | 38 | 0.0 | 0.0 | 55 | 77 | 72.0 | 61.8 | 30.001 | 7.26 | 0.0 | 0 | 0.00 | 0.00 | 0.00 | 0.00 |
| 05/08/26 12:11:34 AM | 38 | 0.0 | 0.0 | 55 | 77 | 72.0 | 61.8 | 30.001 | 7.26 | 0.0 | 0 | 0.00 | 0.00 | 0.00 | 0.00 |
| 05/08/26 12:12:26 AM | 36 | 0.0 | 0.0 | 55 | 77 | 72.0 | 61.8 | 30.002 | 7.26 | 0.0 | 0 | 0.00 | 0.00 | 0.00 | 0.00 |
| 05/08/26 12:13:18 AM | 35 | 0.0 | 0.0 | 55 | 77 | 72.0 | 61.8 | 30.003 | 7.26 | 0.0 | 0 | 0.00 | 0.00 | 0.00 | 0.00 |
| 05/08/26 12:14:28 AM | 32 | 0.0 | 0.0 | 55 | 77 | 72.0 | 61.8 | 30.002 | 7.26 | 0.0 | 0 | 0.00 | 0.00 | 0.00 | 0.00 |
| 05/08/26 12:15:20 AM | 31 | 0.0 | 0.0 | 55 | 77 | 72.0 | 61.7 | 30.004 | 7.26 | 0.0 | 0 | 0.00 | 0.00 | 0.00 | 0.00 |
| 05/08/26 12:16:33 AM | 31 | 0.0 | 0.0 | 55 | 77 | 72.0 | 61.7 | 30.002 | 7.26 | 0.0 | 0 | 0.00 | 0.00 | 0.00 | 0.00 |
| 05/08/26 12:17:21 AM | 35 | 0.0 | 0.0 | 55 | 77 | 72.0 | 61.8 | 30.001 | 7.26 | 0.0 | 0 | 0.00 | 0.00 | 0.00 | 0.00 |
| 05/08/26 12:18:34 AM | 36 | 0.0 | 0.0 | 55 | 77 | 72.0 | 61.8 | 30.001 | 7.26 | 0.0 | 0 | 0.00 | 0.00 | 0.00 | 0.00 |
| 05/08/26 12:19:26 AM | 35 | 0.0 | 0.0 | 55 | 77 | 72.0 | 61.8 | 30.004 | 7.26 | 0.0 | 0 | 0.00 | 0.00 | 0.00 | 0.00 |
| 05/08/26 12:20:36 AM | 38 | 0.0 | 0.0 | 55 | 77 | 71.9 | 61.8 | 30.001 | 7.26 | 0.0 | 0 | 0.00 | 0.00 | 0.00 | 0.00 |
| 05/08/26 12:21:28 AM | 38 | 0.0 | 0.0 | 55 | 77 | 72.0 | 61.8 | 30.000 | 7.26 | 0.0 | 0 | 0.00 | 0.00 | 0.00 | 0.00 |
| 05/08/26 12:22:19 AM | 38 | 0.0 | 0.0 | 55 | 77 | 72.0 | 61.8 | 30.001 | 7.26 | 0.0 | 0 | 0.00 | 0.00 | 0.00 | 0.00 |
| 05/08/26 12:23:29 AM | 38 | 0.0 | 0.0 | 55 | 77 | 71.9 | 61.8 | 30.002 | 7.26 | 0.0 | 0 | 0.00 | 0.00 | 0.00 | 0.00 |
| 05/08/26 12:24:24 AM | 38 | 0.0 | 0.0 | 55 | 77 | 72.0 | 61.8 | 30.003 | 7.26 | 0.0 | 0 | 0.00 | 0.00 | 0.00 | 0.00 |
| 05/08/26 12:29:41 AM | 38 | 0.0 | 0.0 | 55 | 77 | 72.4 | 61.8 | 30.003 | 7.26 | 0.0 | 0 | 0.00 | 0.00 | 0.00 | 0.00 |
| 05/08/26 12:30:54 AM | 38 | 0.0 | 0.0 | 55 | 77 | 72.5 | 61.6 | 30.003 | 7.26 | 0.0 | 0 | 0.00 | 0.00 | 0.00 | 0.00 |
| 05/08/26 12:31:25 AM | 38 | 0.0 | 0.0 | 55 | 77 | 72.4 | 61.6 | 30.001 | 7.26 | 0.0 | 0 | 0.00 | 0.00 | 0.00 | 0.00 |
| 05/08/26 12:32:17 AM | 38 | 0.0 | 0.0 | 55 | 77 | 72.3 | 61.6 | 30.002 | 7.26 | 0.0 | 0 | 0.00 | 0.00 | 0.00 | 0.00 |
| 05/08/26 12:33:30 AM | 38 | 0.0 | 0.0 | 55 | 77 | 72.2 | 61.6 | 30.003 | 7.26 | 0.0 | 0 | 0.00 | 0.00 | 0.00 | 0.00 |
| 05/08/26 12:34:19 AM | 32 | 0.0 | 0.0 | 55 | 77 | 72.2 | 61.6 | 30.000 | 7.26 | 0.0 | 0 | 0.00 | 0.00 | 0.00 | 0.00 |
| 05/08/26 12:35:28 AM | 38 | 0.0 | 0.0 | 55 | 77 | 72.1 | 61.5 | 30.000 | 7.26 | 0.0 | 0 | 0.00 | 0.00 | 0.00 | 0.00 |
| 05/08/26 12:36:23 AM | 38 | 0.0 | 0.0 | 55 | 77 | 72.2 | 61.5 | 30.002 | 7.26 | 0.0 | 0 | 0.00 | 0.00 | 0.00 | 0.00 |
| 05/08/26 12:37:36 AM | 36 | 0.0 | 0.0 | 55 | 77 | 72.1 | 61.4 | 30.003 | 7.26 | 0.0 | 0 | 0.00 | 0.00 | 0.00 | 0.00 |
| 05/08/26 12:38:28 AM | 38 | 0.0 | 0.0 | 55 | 77 | 72.1 | 61.4 | 30.000 | 7.26 | 0.0 | 0 | 0.00 | 0.00 | 0.00 | 0.00 |
| 05/08/26 12:39:35 AM | 39 | 0.0 | 0.0 | 55 | 77 | 72.1 | 61.4 | 30.001 | 7.26 | 0.0 | 0 | 0.00 | 0.00 | 0.00 | 0.00 |
| 05/08/26 12:40:27 AM | 38 | 0.0 | 0.0 | 55 | 77 | 72.1 | 61.4 | 29.999 | 7.26 | 0.0 | 0 | 0.00 | 0.00 | 0.00 | 0.00 |
| 05/08/26 12:41:19 AM | 36 | 0.0 | 0.0 | 55 | 77 | 72.0 | 61.3 | 30.000 | 7.26 | 0.0 | 0 | 0.00 | 0.00 | 0.00 | 0.00 |
| 05/08/26 12:42:29 AM | 38 | 0.0 | 0.0 | 55 | 77 | 72.1 | 61.3 | 30.000 | 7.26 | 0.0 | 0 | 0.00 | 0.00 | 0.00 | 0.00 |
| 05/08/26 12:43:20 AM | 35 | 0.0 | 0.0 | 55 | 77 | 72.0 | 61.3 | 30.002 | 7.26 | 0.0 | 0 | 0.00 | 0.00 | 0.00 | 0.00 |
| 05/08/26 12:44:30 AM | 35 | 0.0 | 0.0 | 55 | 77 | 72.0 | 61.3 | 29.999 | 7.26 | 0.0 | 0 | 0.00 | 0.00 | 0.00 | 0.00 |
| 05/08/26 12:45:43 AM | 36 | 0.0 | 0.0 | 55 | 77 | 72.0 | 61.2 | 29.998 | 7.26 | 0.0 | 0 | 0.00 | 0.00 | 0.00 | 0.00 |
| 05/08/26 12:46:35 AM | 36 | 0.0 | 0.0 | 55 | 77 | 72.0 | 61.2 | 30.000 | 7.26 | 0.0 | 0 | 0.00 | 0.00 | 0.00 | 0.00 |
| 05/08/26 12:47:27 AM | 38 | 0.0 | 0.0 | 55 | 77 | 72.0 | 61.1 | 29.999 | 7.26 | 0.0 | 0 | 0.00 | 0.00 | 0.00 | 0.00 |
| 05/08/26 12:48:19 AM | 35 | 0.0 | 0.0 | 55 | 77 | 72.0 | 61.1 | 30.000 | 7.26 | 0.0 | 0 | 0.00 | 0.00 | 0.00 | 0.00 |
| 05/08/26 12:49:32 AM | 32 | 0.0 | 0.0 | 55 | 77 | 72.0 | 61.1 | 30.000 | 7.26 | 0.0 | 0 | 0.00 | 0.00 | 0.00 | 0.00 |
| 05/08/26 12:50:21 AM | 32 | 0.0 | 0.0 | 55 | 77 | 72.0 | 61.1 | 30.000 | 7.26 | 0.0 | 0 | 0.00 | 0.00 | 0.00 | 0.00 |
| 05/08/26 12:51:31 AM | 38 | 0.0 | 0.0 | 55 | 78 | 71.9 | 61.0 | 29.999 | 7.26 | 0.0 | 0 | 0.00 | 0.00 | 0.00 | 0.00 |
| 05/08/26 12:52:22 AM | 31 | 0.0 | 0.0 | 55 | 78 | 72.0 | 61.0 | 30.001 | 7.26 | 0.0 | 0 | 0.00 | 0.00 | 0.00 | 0.00 |
| 05/08/26 12:53:35 AM | 31 | 0.0 | 0.0 | 55 | 78 | 71.9 | 61.0 | 29.999 | 7.26 | 0.0 | 0 | 0.00 | 0.00 | 0.00 | 0.00 |
| 05/08/26 12:54:27 AM | 36 | 0.0 | 0.0 | 55 | 78 | 71.9 | 60.9 | 29.998 | 7.26 | 0.0 | 0 | 0.00 | 0.00 | 0.00 | 0.00 |
| 05/08/26 12:55:19 AM | 36 | 0.0 | 0.0 | 55 | 78 | 71.9 | 60.9 | 29.998 | 7.26 | 0.0 | 0 | 0.00 | 0.00 | 0.00 | 0.00 |
| 05/08/26 12:56:26 AM | 35 | 0.0 | 0.0 | 55 | 78 | 71.9 | 60.9 | 29.999 | 7.26 | 0.0 | 0 | 0.00 | 0.00 | 0.00 | 0.00 |
| 05/08/26 12:57:18 AM | 36 | 0.0 | 0.0 | 55 | 78 | 71.9 | 60.8 | 29.998 | 7.26 | 0.0 | 0 | 0.00 | 0.00 | 0.00 | 0.00 |
| 05/08/26 12:58:31 AM | 36 | 0.0 | 0.0 | 55 | 78 | 71.9 | 60.8 | 30.000 | 7.26 | 0.0 | 0 | 0.00 | 0.00 | 0.00 | 0.00 |
| 05/08/26 12:59:23 AM | 38 | 0.0 | 0.0 | 55 | 78 | 71.9 | 60.8 | 29.997 | 7.26 | 0.0 | 0 | 0.00 | 0.00 | 0.00 | 0.00 |
| 05/08/26 1:00:36 AM | 38 | 0.0 | 0.0 | 55 | 78 | 71.9 | 60.7 | 29.998 | 7.26 | 0.0 | 0 | 0.00 | 0.00 | 0.00 | 0.00 |
| 05/08/26 1:01:24 AM | 35 | 0.0 | 0.0 | 55 | 78 | 71.9 | 60.7 | 29.998 | 7.26 | 0.0 | 0 | 0.00 | 0.00 | 0.00 | 0.00 |
| 05/08/26 1:02:37 AM | 35 | 0.0 | 0.0 | 55 | 78 | 71.9 | 60.7 | 29.996 | 7.26 | 0.0 | 0 | 0.00 | 0.00 | 0.00 | 0.00 |
| 05/08/26 1:03:26 AM | 38 | 0.0 | 0.0 | 55 | 78 | 71.9 | 60.7 | 29.995 | 7.26 | 0.0 | 0 | 0.00 | 0.00 | 0.00 | 0.00 |
| 05/08/26 1:04:21 AM | 31 | 0.0 | 0.0 | 55 | 78 | 71.8 | 60.6 | 29.996 | 7.26 | 0.0 | 0 | 0.00 | 0.00 | 0.00 | 0.00 |
| 05/08/26 1:05:31 AM | 31 | 0.0 | 0.0 | 55 | 78 | 71.9 | 60.6 | 29.996 | 7.26 | 0.0 | 0 | 0.00 | 0.00 | 0.00 | 0.00 |
| 05/08/26 1:06:20 AM | 36 | 0.0 | 0.0 | 55 | 78 | 71.8 | 60.6 | 29.996 | 7.26 | 0.0 | 0 | 0.00 | 0.00 | 0.00 | 0.00 |
| 05/08/26 1:07:30 AM | 35 | 0.0 | 0.0 | 55 | 78 | 71.8 | 60.5 | 29.995 | 7.26 | 0.0 | 0 | 0.00 | 0.00 | 0.00 | 0.00 |
| 05/08/26 1:08:21 AM | 35 | 0.0 | 0.0 | 55 | 79 | 71.8 | 60.5 | 29.994 | 7.26 | 0.0 | 0 | 0.00 | 0.00 | 0.00 | 0.00 |
| 05/08/26 1:09:34 AM | 36 | 0.0 | 0.0 | 55 | 79 | 71.9 | 60.5 | 29.993 | 7.26 | 0.0 | 0 | 0.00 | 0.00 | 0.00 | 0.00 |
| 05/08/26 1:10:26 AM | 36 | 0.0 | 0.0 | 55 | 79 | 71.9 | 60.5 | 29.996 | 7.26 | 0.0 | 0 | 0.00 | 0.00 | 0.00 | 0.00 |
| 05/08/26 1:11:18 AM | 34 | 0.0 | 0.0 | 55 | 79 | 71.9 | 60.4 | 29.995 | 7.26 | 0.0 | 0 | 0.00 | 0.00 | 0.00 | 0.00 |
| 05/08/26 1:12:28 AM | 38 | 0.0 | 0.0 | 55 | 79 | 71.9 | 60.4 | 29.995 | 7.26 | 0.0 | 0 | 0.00 | 0.00 | 0.00 | 0.00 |
| 05/08/26 1:13:20 AM | 36 | 0.0 | 0.0 | 55 | 79 | 71.9 | 60.4 | 29.994 | 7.26 | 0.0 | 0 | 0.00 | 0.00 | 0.00 | 0.00 |
| 05/08/26 1:14:30 AM | 34 | 0.0 | 0.0 | 55 | 79 | 71.9 | 60.3 | 29.996 | 7.26 | 0.0 | 0 | 0.00 | 0.00 | 0.00 | 0.00 |
| 05/08/26 1:15:21 AM | 36 | 0.0 | 0.0 | 55 | 79 | 71.9 | 60.3 | 29.993 | 7.26 | 0.0 | 0 | 0.00 | 0.00 | 0.00 | 0.00 |
| 05/08/26 1:16:34 AM | 38 | 0.0 | 0.0 | 55 | 79 | 71.8 | 60.3 | 29.993 | 7.26 | 0.0 | 0 | 0.00 | 0.00 | 0.00 | 0.00 |
| 05/08/26 1:17:20 AM | 38 | 0.0 | 0.0 | 55 | 79 | 71.9 | 60.2 | 29.996 | 7.26 | 0.0 | 0 | 0.00 | 0.00 | 0.00 | 0.00 |
| 05/08/26 1:18:33 AM | 34 | 0.0 | 0.0 | 55 | 79 | 71.8 | 60.2 | 29.995 | 7.26 | 0.0 | 0 | 0.00 | 0.00 | 0.00 | 0.00 |
| 05/08/26 1:19:25 AM | 35 | 0.0 | 0.0 | 55 | 79 | 71.8 | 60.2 | 29.993 | 7.26 | 0.0 | 0 | 0.00 | 0.00 | 0.00 | 0.00 |
| 05/08/26 1:20:17 AM | 34 | 0.0 | 0.0 | 55 | 79 | 71.8 | 60.2 | 29.995 | 7.26 | 0.0 | 0 | 0.00 | 0.00 | 0.00 | 0.00 |
| 05/08/26 1:21:30 AM | 38 | 0.0 | 0.0 | 55 | 79 | 71.8 | 60.1 | 29.995 | 7.26 | 0.0 | 0 | 0.00 | 0.00 | 0.00 | 0.00 |
| 05/08/26 1:22:19 AM | 31 | 0.0 | 0.0 | 55 | 79 | 71.8 | 60.1 | 29.995 | 7.26 | 0.0 | 0 | 0.00 | 0.00 | 0.00 | 0.00 |
| 05/08/26 1:23:29 AM | 38 | 0.0 | 0.0 | 55 | 79 | 71.9 | 60.1 | 29.996 | 7.26 | 0.0 | 0 | 0.00 | 0.00 | 0.00 | 0.00 |
| 05/08/26 1:24:17 AM | 36 | 0.0 | 0.0 | 55 | 79 | 71.8 | 60.1 | 29.995 | 7.26 | 0.0 | 0 | 0.00 | 0.00 | 0.00 | 0.00 |
| 05/08/26 1:25:30 AM | 36 | 0.0 | 0.0 | 55 | 79 | 71.8 | 60.1 | 29.993 | 7.26 | 0.0 | 0 | 0.00 | 0.00 | 0.00 | 0.00 |
| 05/08/26 1:26:19 AM | 35 | 0.0 | 0.0 | 55 | 79 | 71.8 | 60.0 | 29.992 | 7.26 | 0.0 | 0 | 0.00 | 0.00 | 0.00 | 0.00 |
| 05/08/26 1:27:29 AM | 38 | 0.0 | 0.0 | 55 | 79 | 71.8 | 60.0 | 29.994 | 7.26 | 0.0 | 0 | 0.00 | 0.00 | 0.00 | 0.00 |
| 05/08/26 1:28:21 AM | 36 | 0.0 | 0.0 | 55 | 80 | 71.8 | 60.0 | 29.994 | 7.26 | 0.0 | 0 | 0.00 | 0.00 | 0.00 | 0.00 |
| 05/08/26 1:29:34 AM | 34 | 0.0 | 0.0 | 55 | 80 | 71.8 | 60.0 | 29.991 | 7.26 | 0.0 | 0 | 0.00 | 0.00 | 0.00 | 0.00 |
| 05/08/26 1:30:26 AM | 34 | 0.0 | 0.0 | 55 | 80 | 71.8 | 59.9 | 29.991 | 7.26 | 0.0 | 0 | 0.00 | 0.00 | 0.00 | 0.00 |
| 05/08/26 1:31:20 AM | 38 | 0.0 | 0.0 | 55 | 80 | 71.8 | 59.9 | 29.990 | 7.26 | 0.0 | 0 | 0.00 | 0.00 | 0.00 | 0.00 |
| 05/08/26 1:32:30 AM | 38 | 0.0 | 0.0 | 55 | 80 | 71.8 | 59.9 | 29.991 | 7.26 | 0.0 | 0 | 0.00 | 0.00 | 0.00 | 0.00 |
| 05/08/26 1:33:16 AM | 38 | 0.0 | 0.0 | 55 | 80 | 71.7 | 59.9 | 29.995 | 7.26 | 0.0 | 0 | 0.00 | 0.00 | 0.00 | 0.00 |
| 05/08/26 1:34:29 AM | 38 | 0.0 | 0.0 | 55 | 80 | 71.8 | 59.9 | 29.989 | 7.26 | 0.0 | 0 | 0.00 | 0.00 | 0.00 | 0.00 |
| 05/08/26 1:35:21 AM | 38 | 0.0 | 0.0 | 55 | 80 | 71.8 | 59.8 | 29.989 | 7.26 | 0.0 | 0 | 0.00 | 0.00 | 0.00 | 0.00 |
| 05/08/26 1:36:34 AM | 31 | 0.0 | 0.0 | 55 | 80 | 71.7 | 59.8 | 29.991 | 7.26 | 0.0 | 0 | 0.00 | 0.00 | 0.00 | 0.00 |
| 05/08/26 1:37:26 AM | 36 | 0.0 | 0.0 | 55 | 80 | 71.7 | 59.8 | 29.988 | 7.26 | 0.0 | 0 | 0.00 | 0.00 | 0.00 | 0.00 |
| 05/08/26 1:38:33 AM | 35 | 0.0 | 0.0 | 55 | 80 | 71.7 | 59.8 | 29.988 | 7.26 | 0.0 | 0 | 0.00 | 0.00 | 0.00 | 0.00 |
| 05/08/26 1:39:24 AM | 34 | 0.0 | 0.0 | 55 | 80 | 71.7 | 59.7 | 29.988 | 7.26 | 0.0 | 0 | 0.00 | 0.00 | 0.00 | 0.00 |
| 05/08/26 1:40:16 AM | 38 | 0.0 | 0.0 | 55 | 80 | 71.7 | 59.7 | 29.988 | 7.26 | 0.0 | 0 | 0.00 | 0.00 | 0.00 | 0.00 |
| 05/08/26 1:41:29 AM | 35 | 0.0 | 0.0 | 55 | 80 | 71.7 | 59.6 | 29.988 | 7.26 | 0.0 | 0 | 0.00 | 0.00 | 0.00 | 0.00 |
| 05/08/26 1:42:21 AM | 34 | 0.0 | 0.0 | 55 | 80 | 71.7 | 59.6 | 29.989 | 7.26 | 0.0 | 0 | 0.00 | 0.00 | 0.00 | 0.00 |
| 05/08/26 1:43:28 AM | 36 | 0.0 | 0.0 | 55 | 80 | 71.7 | 59.6 | 29.988 | 7.26 | 0.0 | 0 | 0.00 | 0.00 | 0.00 | 0.00 |
| 05/08/26 1:44:20 AM | 38 | 0.0 | 0.0 | 55 | 80 | 71.7 | 59.6 | 29.988 | 7.26 | 0.0 | 0 | 0.00 | 0.00 | 0.00 | 0.00 |
| 05/08/26 1:45:33 AM | 32 | 0.0 | 0.0 | 55 | 80 | 71.7 | 59.5 | 29.988 | 7.26 | 0.0 | 0 | 0.00 | 0.00 | 0.00 | 0.00 |
| 05/08/26 1:46:25 AM | 35 | 0.0 | 0.0 | 55 | 80 | 71.7 | 59.5 | 29.986 | 7.26 | 0.0 | 0 | 0.00 | 0.00 | 0.00 | 0.00 |
| 05/08/26 1:47:17 AM | 38 | 0.0 | 0.0 | 55 | 80 | 71.7 | 59.5 | 29.988 | 7.26 | 0.0 | 0 | 0.00 | 0.00 | 0.00 | 0.00 |
| 05/08/26 1:48:30 AM | 38 | 0.0 | 0.0 | 55 | 80 | 71.7 | 59.5 | 29.989 | 7.26 | 0.0 | 0 | 0.00 | 0.00 | 0.00 | 0.00 |
| 05/08/26 1:49:15 AM | 38 | 0.0 | 0.0 | 55 | 80 | 71.7 | 59.5 | 29.988 | 7.26 | 0.0 | 0 | 0.00 | 0.00 | 0.00 | 0.00 |
| 05/08/26 1:50:28 AM | 35 | 0.0 | 0.0 | 55 | 80 | 71.7 | 59.4 | 29.986 | 7.26 | 0.0 | 0 | 0.00 | 0.00 | 0.00 | 0.00 |
| 05/08/26 1:51:23 AM | 35 | 0.0 | 0.0 | 55 | 80 | 71.7 | 59.4 | 29.985 | 7.26 | 0.0 | 0 | 0.00 | 0.00 | 0.00 | 0.00 |
| 05/08/26 1:52:33 AM | 38 | 0.0 | 0.0 | 55 | 80 | 71.7 | 59.4 | 29.985 | 7.26 | 0.0 | 0 | 0.00 | 0.00 | 0.00 | 0.00 |
| 05/08/26 1:53:25 AM | 35 | 0.0 | 0.0 | 55 | 80 | 71.7 | 59.4 | 29.984 | 7.26 | 0.0 | 0 | 0.00 | 0.00 | 0.00 | 0.00 |
| 05/08/26 1:54:35 AM | 38 | 0.0 | 0.0 | 55 | 80 | 71.7 | 59.3 | 29.984 | 7.26 | 0.0 | 0 | 0.00 | 0.00 | 0.00 | 0.00 |
| 05/08/26 1:55:27 AM | 36 | 0.0 | 0.0 | 55 | 81 | 71.6 | 59.3 | 29.987 | 7.26 | 0.0 | 0 | 0.00 | 0.00 | 0.00 | 0.00 |
| 05/08/26 1:56:19 AM | 35 | 0.0 | 0.0 | 55 | 81 | 71.7 | 59.3 | 29.984 | 7.26 | 0.0 | 0 | 0.00 | 0.00 | 0.00 | 0.00 |
| 05/08/26 1:57:32 AM | 34 | 0.0 | 0.0 | 55 | 81 | 71.6 | 59.3 | 29.984 | 7.26 | 0.0 | 0 | 0.00 | 0.00 | 0.00 | 0.00 |
| 05/08/26 1:58:23 AM | 35 | 0.0 | 0.0 | 55 | 81 | 71.6 | 59.2 | 29.984 | 7.26 | 0.0 | 0 | 0.00 | 0.00 | 0.00 | 0.00 |
| 05/08/26 1:59:15 AM | 38 | 0.0 | 0.0 | 55 | 81 | 71.6 | 59.2 | 29.985 | 7.26 | 0.0 | 0 | 0.00 | 0.00 | 0.00 | 0.00 |
| 05/08/26 2:00:46 AM | 38 | 0.0 | 0.0 | 55 | 81 | 71.6 | 59.2 | 29.986 | 7.26 | 0.0 | 0 | 0.00 | 0.00 | 0.00 | 0.00 |
| 05/08/26 2:01:17 AM | 32 | 0.0 | 2.0 | 55 | 81 | 71.6 | 59.1 | 29.984 | 7.26 | 0.0 | 0 | 0.00 | 0.00 | 0.00 | 0.00 |
| 05/08/26 2:02:30 AM | 36 | 1.0 | 3.0 | 55 | 81 | 71.6 | 59.1 | 29.982 | 7.26 | 0.0 | 0 | 0.00 | 0.00 | 0.00 | 0.00 |
| 05/08/26 2:03:22 AM | 37 | 0.0 | 3.0 | 55 | 81 | 71.6 | 59.1 | 29.983 | 7.26 | 0.0 | 0 | 0.00 | 0.00 | 0.00 | 0.00 |
| 05/08/26 2:04:35 AM | 37 | 0.0 | 3.0 | 55 | 81 | 71.6 | 59.1 | 29.983 | 7.26 | 0.0 | 0 | 0.00 | 0.00 | 0.00 | 0.00 |
| 05/08/26 2:05:21 AM | 36 | 0.0 | 3.0 | 55 | 81 | 71.6 | 59.1 | 29.982 | 7.26 | 0.0 | 0 | 0.00 | 0.00 | 0.00 | 0.00 |
| 05/08/26 2:06:34 AM | 37 | 0.0 | 3.0 | 55 | 81 | 71.6 | 59.1 | 29.986 | 7.26 | 0.0 | 0 | 0.00 | 0.00 | 0.00 | 0.00 |
| 05/08/26 2:07:26 AM | 36 | 0.0 | 3.0 | 55 | 81 | 71.5 | 59.1 | 29.984 | 7.26 | 0.0 | 0 | 0.00 | 0.00 | 0.00 | 0.00 |
| 05/08/26 2:08:17 AM | 38 | 0.0 | 3.0 | 55 | 81 | 71.6 | 59.1 | 29.983 | 7.26 | 0.0 | 0 | 0.00 | 0.00 | 0.00 | 0.00 |
| 05/08/26 2:09:30 AM | 35 | 0.0 | 3.0 | 55 | 82 | 71.6 | 59.1 | 29.983 | 7.26 | 0.0 | 0 | 0.00 | 0.00 | 0.00 | 0.00 |
| 05/08/26 2:10:22 AM | 37 | 0.0 | 3.0 | 55 | 82 | 71.5 | 59.1 | 29.982 | 7.26 | 0.0 | 0 | 0.00 | 0.00 | 0.00 | 0.00 |
| 05/08/26 2:11:29 AM | 38 | 0.0 | 3.0 | 55 | 82 | 71.5 | 59.0 | 29.981 | 7.26 | 0.0 | 0 | 0.00 | 0.00 | 0.00 | 0.00 |
| 05/08/26 2:12:21 AM | 38 | 0.0 | 3.0 | 55 | 82 | 71.5 | 59.0 | 29.981 | 7.26 | 0.0 | 0 | 0.00 | 0.00 | 0.00 | 0.00 |
| 05/08/26 2:13:34 AM | 36 | 0.0 | 3.0 | 55 | 82 | 71.5 | 59.0 | 29.981 | 7.26 | 0.0 | 0 | 0.00 | 0.00 | 0.00 | 0.00 |
| 05/08/26 2:14:29 AM | 36 | 0.0 | 3.0 | 55 | 82 | 71.5 | 59.0 | 29.981 | 7.26 | 0.0 | 0 | 0.00 | 0.00 | 0.00 | 0.00 |
| 05/08/26 2:15:21 AM | 38 | 0.0 | 3.0 | 55 | 82 | 71.5 | 59.0 | 29.981 | 7.26 | 0.0 | 0 | 0.00 | 0.00 | 0.00 | 0.00 |
| 05/08/26 2:16:28 AM | 38 | 0.0 | 3.0 | 55 | 82 | 71.5 | 59.0 | 29.981 | 7.26 | 0.0 | 0 | 0.00 | 0.00 | 0.00 | 0.00 |
| 05/08/26 2:17:20 AM | 36 | 0.0 | 3.0 | 55 | 82 | 71.5 | 59.0 | 29.982 | 7.26 | 0.0 | 0 | 0.00 | 0.00 | 0.00 | 0.00 |
| 05/08/26 2:18:33 AM | 37 | 0.0 | 3.0 | 55 | 82 | 71.5 | 58.9 | 29.980 | 7.26 | 0.0 | 0 | 0.00 | 0.00 | 0.00 | 0.00 |
| 05/08/26 2:19:24 AM | 32 | 0.0 | 3.0 | 55 | 82 | 71.5 | 58.9 | 29.980 | 7.26 | 0.0 | 0 | 0.00 | 0.00 | 0.00 | 0.00 |
| 05/08/26 2:20:16 AM | 34 | 0.0 | 3.0 | 55 | 82 | 71.5 | 58.9 | 29.980 | 7.26 | 0.0 | 0 | 0.00 | 0.00 | 0.00 | 0.00 |
| 05/08/26 2:21:23 AM | 38 | 0.0 | 3.0 | 55 | 82 | 71.5 | 58.9 | 29.982 | 7.26 | 0.0 | 0 | 0.00 | 0.00 | 0.00 | 0.00 |
| 05/08/26 2:22:33 AM | 38 | 0.0 | 3.0 | 55 | 82 | 71.5 | 58.9 | 29.981 | 7.26 | 0.0 | 0 | 0.00 | 0.00 | 0.00 | 0.00 |
| 05/08/26 2:23:25 AM | 35 | 0.0 | 3.0 | 55 | 82 | 71.5 | 58.8 | 29.982 | 7.26 | 0.0 | 0 | 0.00 | 0.00 | 0.00 | 0.00 |
| 05/08/26 2:24:17 AM | 32 | 1.0 | 3.0 | 55 | 82 | 71.5 | 58.8 | 29.980 | 7.26 | 0.0 | 0 | 0.00 | 0.00 | 0.00 | 0.00 |
| 05/08/26 2:25:30 AM | 38 | 0.0 | 3.0 | 55 | 82 | 71.4 | 58.8 | 29.980 | 7.26 | 0.0 | 0 | 0.00 | 0.00 | 0.00 | 0.00 |
| 05/08/26 2:26:22 AM | 34 | 0.0 | 3.0 | 55 | 82 | 71.5 | 58.8 | 29.980 | 7.26 | 0.0 | 0 | 0.00 | 0.00 | 0.00 | 0.00 |
| 05/08/26 2:27:29 AM | 38 | 0.0 | 3.0 | 55 | 82 | 71.5 | 58.8 | 29.979 | 7.26 | 0.0 | 0 | 0.00 | 0.00 | 0.00 | 0.00 |
| 05/08/26 2:28:21 AM | 34 | 0.0 | 3.0 | 55 | 82 | 71.5 | 58.7 | 29.981 | 7.26 | 0.0 | 0 | 0.00 | 0.00 | 0.00 | 0.00 |
| 05/08/26 2:29:34 AM | 38 | 0.0 | 3.0 | 55 | 82 | 71.5 | 58.7 | 29.980 | 7.26 | 0.0 | 0 | 0.00 | 0.00 | 0.00 | 0.00 |
| 05/08/26 2:30:29 AM | 38 | 0.0 | 3.0 | 55 | 82 | 71.5 | 58.7 | 29.981 | 7.26 | 0.0 | 0 | 0.00 | 0.00 | 0.00 | 0.00 |
| 05/08/26 2:31:18 AM | 34 | 0.0 | 3.0 | 55 | 82 | 71.5 | 58.7 | 29.979 | 7.26 | 0.0 | 0 | 0.00 | 0.00 | 0.00 | 0.00 |
| 05/08/26 2:32:28 AM | 36 | 0.0 | 3.0 | 55 | 82 | 71.5 | 58.7 | 29.979 | 7.26 | 0.0 | 0 | 0.00 | 0.00 | 0.00 | 0.00 |
| 05/08/26 2:33:16 AM | 38 | 0.0 | 3.0 | 55 | 82 | 71.5 | 58.7 | 29.980 | 7.26 | 0.0 | 0 | 0.00 | 0.00 | 0.00 | 0.00 |
| 05/08/26 2:34:32 AM | 38 | 0.0 | 3.0 | 55 | 82 | 71.4 | 58.6 | 29.981 | 7.26 | 0.0 | 0 | 0.00 | 0.00 | 0.00 | 0.00 |
| 05/08/26 2:35:24 AM | 36 | 0.0 | 3.0 | 55 | 82 | 71.5 | 58.6 | 29.979 | 7.26 | 0.0 | 0 | 0.00 | 0.00 | 0.00 | 0.00 |
| 05/08/26 2:36:34 AM | 38 | 0.0 | 3.0 | 55 | 82 | 71.5 | 58.6 | 29.979 | 7.26 | 0.0 | 0 | 0.00 | 0.00 | 0.00 | 0.00 |
| 05/08/26 2:37:20 AM | 38 | 1.0 | 3.0 | 55 | 82 | 71.5 | 58.6 | 29.980 | 7.26 | 0.0 | 0 | 0.00 | 0.00 | 0.00 | 0.00 |
| 05/08/26 2:38:33 AM | 32 | 0.0 | 3.0 | 55 | 82 | 71.5 | 58.5 | 29.980 | 7.26 | 0.0 | 0 | 0.00 | 0.00 | 0.00 | 0.00 |
| 05/08/26 2:39:25 AM | 36 | 1.0 | 3.0 | 55 | 82 | 71.5 | 58.5 | 29.981 | 7.26 | 0.0 | 0 | 0.00 | 0.00 | 0.00 | 0.00 |
| 05/08/26 2:40:17 AM | 38 | 0.0 | 3.0 | 55 | 82 | 71.5 | 58.4 | 29.980 | 7.26 | 0.0 | 0 | 0.00 | 0.00 | 0.00 | 0.00 |
| 05/08/26 2:41:30 AM | 37 | 0.0 | 3.0 | 55 | 82 | 71.4 | 58.4 | 29.980 | 7.26 | 0.0 | 0 | 0.00 | 0.00 | 0.00 | 0.00 |
| 05/08/26 2:42:19 AM | 38 | 0.0 | 3.0 | 55 | 82 | 71.4 | 58.4 | 29.979 | 7.26 | 0.0 | 0 | 0.00 | 0.00 | 0.00 | 0.00 |
| 05/08/26 2:43:26 AM | 38 | 0.0 | 3.0 | 55 | 82 | 71.4 | 58.3 | 29.980 | 7.26 | 0.0 | 0 | 0.00 | 0.00 | 0.00 | 0.00 |
| 05/08/26 2:44:21 AM | 36 | 0.0 | 3.0 | 55 | 82 | 71.4 | 58.3 | 29.980 | 7.26 | 0.0 | 0 | 0.00 | 0.00 | 0.00 | 0.00 |
| 05/08/26 2:45:34 AM | 36 | 0.0 | 3.0 | 55 | 83 | 71.4 | 58.2 | 29.978 | 7.26 | 0.0 | 0 | 0.00 | 0.00 | 0.00 | 0.00 |
| 05/08/26 2:46:23 AM | 34 | 0.0 | 3.0 | 55 | 83 | 71.4 | 58.2 | 29.977 | 7.26 | 0.0 | 0 | 0.00 | 0.00 | 0.00 | 0.00 |
| 05/08/26 2:47:36 AM | 36 | 0.0 | 3.0 | 55 | 83 | 71.4 | 58.2 | 29.979 | 7.26 | 0.0 | 0 | 0.00 | 0.00 | 0.00 | 0.00 |
| 05/08/26 2:48:24 AM | 36 | 0.0 | 3.0 | 55 | 83 | 71.4 | 58.1 | 29.980 | 7.26 | 0.0 | 0 | 0.00 | 0.00 | 0.00 | 0.00 |
| 05/08/26 2:49:34 AM | 38 | 0.0 | 3.0 | 55 | 83 | 71.4 | 58.1 | 29.977 | 7.26 | 0.0 | 0 | 0.00 | 0.00 | 0.00 | 0.00 |
| 05/08/26 2:50:26 AM | 37 | 0.0 | 3.0 | 55 | 83 | 71.4 | 58.1 | 29.978 | 7.26 | 0.0 | 0 | 0.00 | 0.00 | 0.00 | 0.00 |
| 05/08/26 2:51:18 AM | 38 | 0.0 | 3.0 | 55 | 83 | 71.4 | 58.1 | 29.979 | 7.26 | 0.0 | 0 | 0.00 | 0.00 | 0.00 | 0.00 |
| 05/08/26 2:52:31 AM | 32 | 0.0 | 3.0 | 55 | 83 | 71.3 | 58.0 | 29.978 | 7.26 | 0.0 | 0 | 0.00 | 0.00 | 0.00 | 0.00 |
| 05/08/26 2:53:20 AM | 35 | 0.0 | 3.0 | 55 | 83 | 71.3 | 58.0 | 29.979 | 7.26 | 0.0 | 0 | 0.00 | 0.00 | 0.00 | 0.00 |
| 05/08/26 2:54:30 AM | 38 | 0.0 | 3.0 | 55 | 83 | 71.4 | 58.0 | 29.978 | 7.26 | 0.0 | 0 | 0.00 | 0.00 | 0.00 | 0.00 |
| 05/08/26 2:55:25 AM | 38 | 0.0 | 3.0 | 55 | 83 | 71.3 | 58.0 | 29.978 | 7.26 | 0.0 | 0 | 0.00 | 0.00 | 0.00 | 0.00 |
| 05/08/26 2:56:35 AM | 36 | 0.0 | 3.0 | 55 | 83 | 71.3 | 57.9 | 29.979 | 7.26 | 0.0 | 0 | 0.00 | 0.00 | 0.00 | 0.00 |
| 05/08/26 2:57:27 AM | 35 | 0.0 | 3.0 | 55 | 83 | 71.3 | 57.9 | 29.979 | 7.26 | 0.0 | 0 | 0.00 | 0.00 | 0.00 | 0.00 |
| 05/08/26 2:58:19 AM | 34 | 0.0 | 3.0 | 55 | 83 | 71.3 | 57.9 | 29.978 | 7.26 | 0.0 | 0 | 0.00 | 0.00 | 0.00 | 0.00 |
| 05/08/26 2:59:29 AM | 32 | 0.0 | 3.0 | 55 | 83 | 71.3 | 57.8 | 29.979 | 7.26 | 0.0 | 0 | 0.00 | 0.00 | 0.00 | 0.00 |
| 05/08/26 3:00:21 AM | 38 | 0.0 | 3.0 | 55 | 83 | 71.3 | 57.9 | 29.980 | 7.26 | 0.0 | 0 | 0.00 | 0.00 | 0.00 | 0.00 |
| 05/08/26 3:01:34 AM | 38 | 0.0 | 3.0 | 55 | 83 | 71.3 | 57.8 | 29.978 | 7.26 | 0.0 | 0 | 0.00 | 0.00 | 0.00 | 0.00 |
| 05/08/26 3:02:25 AM | 38 | 0.0 | 3.0 | 55 | 83 | 71.3 | 57.8 | 29.978 | 7.26 | 0.0 | 0 | 0.00 | 0.00 | 0.00 | 0.00 |
| 05/08/26 3:03:17 AM | 38 | 0.0 | 3.0 | 55 | 83 | 71.3 | 57.8 | 29.980 | 7.26 | 0.0 | 0 | 0.00 | 0.00 | 0.00 | 0.00 |
| 05/08/26 3:04:24 AM | 35 | 0.0 | 3.0 | 55 | 83 | 71.3 | 57.8 | 29.980 | 7.26 | 0.0 | 0 | 0.00 | 0.00 | 0.00 | 0.00 |
| 05/08/26 3:05:19 AM | 35 | 0.0 | 3.0 | 55 | 83 | 71.3 | 57.8 | 29.977 | 7.26 | 0.0 | 0 | 0.00 | 0.00 | 0.00 | 0.00 |
| 05/08/26 3:06:29 AM | 38 | 0.0 | 3.0 | 55 | 83 | 71.3 | 57.7 | 29.977 | 7.26 | 0.0 | 0 | 0.00 | 0.00 | 0.00 | 0.00 |
| 05/08/26 3:07:21 AM | 38 | 0.0 | 3.0 | 55 | 83 | 71.3 | 57.7 | 29.978 | 7.26 | 0.0 | 0 | 0.00 | 0.00 | 0.00 | 0.00 |
| 05/08/26 3:08:34 AM | 36 | 0.0 | 3.0 | 55 | 83 | 71.3 | 57.7 | 29.977 | 7.26 | 0.0 | 0 | 0.00 | 0.00 | 0.00 | 0.00 |
| 05/08/26 3:09:20 AM | 35 | 0.0 | 3.0 | 55 | 83 | 71.3 | 57.7 | 29.977 | 7.26 | 0.0 | 0 | 0.00 | 0.00 | 0.00 | 0.00 |
| 05/08/26 3:10:33 AM | 38 | 0.0 | 3.0 | 55 | 83 | 71.3 | 57.7 | 29.978 | 7.26 | 0.0 | 0 | 0.00 | 0.00 | 0.00 | 0.00 |
| 05/08/26 3:11:25 AM | 32 | 0.0 | 3.0 | 55 | 84 | 71.3 | 57.6 | 29.978 | 7.26 | 0.0 | 0 | 0.00 | 0.00 | 0.00 | 0.00 |
| 05/08/26 3:12:35 AM | 39 | 0.0 | 3.0 | 55 | 84 | 71.3 | 57.6 | 29.976 | 7.26 | 0.0 | 0 | 0.00 | 0.00 | 0.00 | 0.00 |
| 05/08/26 3:13:30 AM | 38 | 0.0 | 3.0 | 55 | 84 | 71.3 | 57.6 | 29.979 | 7.26 | 0.0 | 0 | 0.00 | 0.00 | 0.00 | 0.00 |
| 05/08/26 3:14:22 AM | 38 | 0.0 | 3.0 | 55 | 84 | 71.3 | 57.6 | 29.978 | 7.26 | 0.0 | 0 | 0.00 | 0.00 | 0.00 | 0.00 |
| 05/08/26 3:15:32 AM | 36 | 0.0 | 3.0 | 55 | 84 | 71.3 | 57.6 | 29.978 | 7.26 | 0.0 | 0 | 0.00 | 0.00 | 0.00 | 0.00 |
| 05/08/26 3:16:23 AM | 34 | 0.0 | 3.0 | 55 | 84 | 71.3 | 57.6 | 29.979 | 7.26 | 0.0 | 0 | 0.00 | 0.00 | 0.00 | 0.00 |
| 05/08/26 3:17:36 AM | 35 | 0.0 | 3.0 | 55 | 84 | 71.3 | 57.5 | 29.980 | 7.26 | 0.0 | 0 | 0.00 | 0.00 | 0.00 | 0.00 |
| 05/08/26 3:18:25 AM | 38 | 0.0 | 3.0 | 55 | 84 | 71.3 | 57.5 | 29.979 | 7.26 | 0.0 | 0 | 0.00 | 0.00 | 0.00 | 0.00 |
| 05/08/26 3:19:20 AM | 38 | 0.0 | 3.0 | 55 | 84 | 71.3 | 57.5 | 29.978 | 7.26 | 0.0 | 0 | 0.00 | 0.00 | 0.00 | 0.00 |
| 05/08/26 3:20:27 AM | 38 | 0.0 | 3.0 | 55 | 84 | 71.3 | 57.5 | 29.979 | 7.26 | 0.0 | 0 | 0.00 | 0.00 | 0.00 | 0.00 |
| 05/08/26 3:21:19 AM | 35 | 0.0 | 3.0 | 55 | 84 | 71.3 | 57.5 | 29.978 | 7.26 | 0.0 | 0 | 0.00 | 0.00 | 0.00 | 0.00 |
| 05/08/26 3:22:29 AM | 38 | 0.0 | 3.0 | 55 | 84 | 71.3 | 57.4 | 29.977 | 7.26 | 0.0 | 0 | 0.00 | 0.00 | 0.00 | 0.00 |
| 05/08/26 3:23:21 AM | 38 | 0.0 | 3.0 | 55 | 84 | 71.3 | 57.4 | 29.978 | 7.26 | 0.0 | 0 | 0.00 | 0.00 | 0.00 | 0.00 |
| 05/08/26 3:24:34 AM | 35 | 0.0 | 3.0 | 55 | 84 | 71.3 | 57.4 | 29.980 | 7.26 | 0.0 | 0 | 0.00 | 0.00 | 0.00 | 0.00 |
| 05/08/26 3:25:23 AM | 38 | 0.0 | 3.0 | 55 | 84 | 71.3 | 57.4 | 29.979 | 7.26 | 0.0 | 0 | 0.00 | 0.00 | 0.00 | 0.00 |
| 05/08/26 3:26:36 AM | 38 | 0.0 | 3.0 | 55 | 84 | 71.3 | 57.3 | 29.978 | 7.26 | 0.0 | 0 | 0.00 | 0.00 | 0.00 | 0.00 |
| 05/08/26 3:27:28 AM | 36 | 0.0 | 3.0 | 55 | 84 | 71.3 | 57.3 | 29.979 | 7.26 | 0.0 | 0 | 0.00 | 0.00 | 0.00 | 0.00 |
| 05/08/26 3:28:20 AM | 38 | 0.0 | 3.0 | 55 | 84 | 71.3 | 57.3 | 29.979 | 7.26 | 0.0 | 0 | 0.00 | 0.00 | 0.00 | 0.00 |
| 05/08/26 3:29:30 AM | 38 | 0.0 | 3.0 | 55 | 84 | 71.3 | 57.3 | 29.975 | 7.26 | 0.0 | 0 | 0.00 | 0.00 | 0.00 | 0.00 |
| 05/08/26 3:30:22 AM | 35 | 0.0 | 3.0 | 55 | 84 | 71.3 | 57.2 | 29.977 | 7.26 | 0.0 | 0 | 0.00 | 0.00 | 0.00 | 0.00 |
| 05/08/26 3:31:28 AM | 36 | 0.0 | 3.0 | 55 | 84 | 71.2 | 57.2 | 29.975 | 7.26 | 0.0 | 0 | 0.00 | 0.00 | 0.00 | 0.00 |
| 05/08/26 3:32:23 AM | 34 | 0.0 | 3.0 | 55 | 84 | 71.3 | 57.2 | 29.976 | 7.26 | 0.0 | 0 | 0.00 | 0.00 | 0.00 | 0.00 |
| 05/08/26 3:33:33 AM | 38 | 0.0 | 3.0 | 55 | 84 | 71.2 | 57.2 | 29.977 | 7.26 | 0.0 | 0 | 0.00 | 0.00 | 0.00 | 0.00 |
| 05/08/26 3:34:25 AM | 32 | 0.0 | 3.0 | 55 | 84 | 71.2 | 57.2 | 29.976 | 7.26 | 0.0 | 0 | 0.00 | 0.00 | 0.00 | 0.00 |
| 05/08/26 3:35:17 AM | 32 | 0.0 | 3.0 | 55 | 84 | 71.2 | 57.2 | 29.976 | 7.26 | 0.0 | 0 | 0.00 | 0.00 | 0.00 | 0.00 |
| 05/08/26 3:36:24 AM | 36 | 0.0 | 3.0 | 55 | 84 | 71.2 | 57.2 | 29.976 | 7.26 | 0.0 | 0 | 0.00 | 0.00 | 0.00 | 0.00 |
| 05/08/26 3:37:16 AM | 38 | 0.0 | 3.0 | 55 | 84 | 71.2 | 57.2 | 29.977 | 7.26 | 0.0 | 0 | 0.00 | 0.00 | 0.00 | 0.00 |
| 05/08/26 3:38:26 AM | 38 | 0.0 | 3.0 | 55 | 84 | 71.2 | 57.2 | 29.977 | 7.26 | 0.0 | 0 | 0.00 | 0.00 | 0.00 | 0.00 |
| 05/08/26 3:39:21 AM | 36 | 0.0 | 3.0 | 55 | 84 | 71.2 | 57.1 | 29.977 | 7.26 | 0.0 | 0 | 0.00 | 0.00 | 0.00 | 0.00 |
| 05/08/26 3:40:31 AM | 35 | 0.0 | 3.0 | 55 | 84 | 71.2 | 57.1 | 29.977 | 7.26 | 0.0 | 0 | 0.00 | 0.00 | 0.00 | 0.00 |
| 05/08/26 3:41:20 AM | 34 | 0.0 | 3.0 | 55 | 84 | 71.2 | 57.1 | 29.976 | 7.26 | 0.0 | 0 | 0.00 | 0.00 | 0.00 | 0.00 |
| 05/08/26 3:42:33 AM | 38 | 0.0 | 3.0 | 55 | 84 | 71.2 | 57.1 | 29.976 | 7.26 | 0.0 | 0 | 0.00 | 0.00 | 0.00 | 0.00 |
| 05/08/26 3:43:25 AM | 35 | 0.0 | 3.0 | 55 | 84 | 71.2 | 57.0 | 29.977 | 7.26 | 0.0 | 0 | 0.00 | 0.00 | 0.00 | 0.00 |
| 05/08/26 3:44:35 AM | 38 | 0.0 | 3.0 | 55 | 84 | 71.1 | 57.0 | 29.977 | 7.26 | 0.0 | 0 | 0.00 | 0.00 | 0.00 | 0.00 |
| 05/08/26 3:45:30 AM | 32 | 0.0 | 3.0 | 55 | 84 | 71.2 | 57.0 | 29.976 | 7.26 | 0.0 | 0 | 0.00 | 0.00 | 0.00 | 0.00 |
| 05/08/26 3:46:22 AM | 38 | 0.0 | 3.0 | 55 | 84 | 71.1 | 57.0 | 29.977 | 7.26 | 0.0 | 0 | 0.00 | 0.00 | 0.00 | 0.00 |
| 05/08/26 3:47:29 AM | 34 | 0.0 | 3.0 | 55 | 85 | 71.1 | 57.0 | 29.978 | 7.26 | 0.0 | 0 | 0.00 | 0.00 | 0.00 | 0.00 |
| 05/08/26 3:48:21 AM | 35 | 0.0 | 3.0 | 55 | 85 | 71.2 | 57.0 | 29.977 | 7.26 | 0.0 | 0 | 0.00 | 0.00 | 0.00 | 0.00 |
| 05/08/26 3:49:33 AM | 38 | 0.0 | 3.0 | 55 | 85 | 71.1 | 57.0 | 29.977 | 7.26 | 0.0 | 0 | 0.00 | 0.00 | 0.00 | 0.00 |
| 05/08/26 3:50:25 AM | 38 | 0.0 | 3.0 | 55 | 85 | 71.1 | 56.9 | 29.974 | 7.26 | 0.0 | 0 | 0.00 | 0.00 | 0.00 | 0.00 |
| 05/08/26 3:51:35 AM | 36 | 0.0 | 3.0 | 55 | 85 | 71.1 | 56.9 | 29.976 | 7.26 | 0.0 | 0 | 0.00 | 0.00 | 0.00 | 0.00 |
| 05/08/26 3:52:24 AM | 35 | 0.0 | 3.0 | 55 | 85 | 71.1 | 56.9 | 29.977 | 7.26 | 0.0 | 0 | 0.00 | 0.00 | 0.00 | 0.00 |
| 05/08/26 3:53:37 AM | 32 | 0.0 | 3.0 | 55 | 84 | 71.1 | 56.9 | 29.974 | 7.26 | 0.0 | 0 | 0.00 | 0.00 | 0.00 | 0.00 |
| 05/08/26 3:54:29 AM | 38 | 0.0 | 3.0 | 55 | 85 | 71.1 | 56.9 | 29.975 | 7.26 | 0.0 | 0 | 0.00 | 0.00 | 0.00 | 0.00 |
| 05/08/26 3:55:21 AM | 36 | 0.0 | 3.0 | 55 | 84 | 71.1 | 56.8 | 29.976 | 7.26 | 0.0 | 0 | 0.00 | 0.00 | 0.00 | 0.00 |
| 05/08/26 3:56:31 AM | 36 | 0.0 | 3.0 | 55 | 84 | 71.1 | 56.8 | 29.975 | 7.26 | 0.0 | 0 | 0.00 | 0.00 | 0.00 | 0.00 |
| 05/08/26 3:57:20 AM | 38 | 0.0 | 3.0 | 55 | 84 | 71.1 | 56.8 | 29.976 | 7.26 | 0.0 | 0 | 0.00 | 0.00 | 0.00 | 0.00 |
| 05/08/26 3:58:30 AM | 36 | 0.0 | 3.0 | 55 | 85 | 71.1 | 56.7 | 29.976 | 7.26 | 0.0 | 0 | 0.00 | 0.00 | 0.00 | 0.00 |
| 05/08/26 3:59:22 AM | 35 | 0.0 | 3.0 | 55 | 85 | 71.1 | 56.7 | 29.977 | 7.26 | 0.0 | 0 | 0.00 | 0.00 | 0.00 | 0.00 |
| 05/08/26 4:00:38 AM | 34 | 0.0 | 3.0 | 55 | 85 | 71.1 | 56.7 | 29.977 | 7.26 | 0.0 | 0 | 0.00 | 0.00 | 0.00 | 0.00 |
| 05/08/26 4:01:30 AM | 38 | 0.0 | 3.0 | 55 | 85 | 71.1 | 56.6 | 29.976 | 7.26 | 0.0 | 0 | 0.00 | 0.00 | 0.00 | 0.00 |
| 05/08/26 4:02:22 AM | 38 | 0.0 | 3.0 | 55 | 85 | 71.1 | 56.6 | 29.979 | 7.26 | 0.0 | 0 | 0.00 | 0.00 | 0.00 | 0.00 |
| 05/08/26 4:03:29 AM | 38 | 0.0 | 3.0 | 55 | 85 | 71.1 | 56.6 | 29.975 | 7.26 | 0.0 | 0 | 0.00 | 0.00 | 0.00 | 0.00 |
| 05/08/26 4:04:21 AM | 36 | 0.0 | 3.0 | 55 | 85 | 71.1 | 56.6 | 29.976 | 7.26 | 0.0 | 0 | 0.00 | 0.00 | 0.00 | 0.00 |
| 05/08/26 4:05:34 AM | 32 | 0.0 | 3.0 | 55 | 85 | 71.0 | 56.6 | 29.975 | 7.26 | 0.0 | 0 | 0.00 | 0.00 | 0.00 | 0.00 |
| 05/08/26 4:06:26 AM | 38 | 0.0 | 3.0 | 55 | 85 | 71.0 | 56.5 | 29.974 | 7.26 | 0.0 | 0 | 0.00 | 0.00 | 0.00 | 0.00 |
| 05/08/26 4:07:18 AM | 35 | 0.0 | 3.0 | 55 | 85 | 71.1 | 56.6 | 29.974 | 7.26 | 0.0 | 0 | 0.00 | 0.00 | 0.00 | 0.00 |
| 05/08/26 4:08:28 AM | 38 | 0.0 | 3.0 | 55 | 85 | 71.0 | 56.6 | 29.974 | 7.26 | 0.0 | 0 | 0.00 | 0.00 | 0.00 | 0.00 |
| 05/08/26 4:09:16 AM | 35 | 0.0 | 3.0 | 55 | 85 | 71.0 | 56.6 | 29.978 | 7.26 | 0.0 | 0 | 0.00 | 0.00 | 0.00 | 0.00 |
| 05/08/26 4:10:30 AM | 31 | 0.0 | 3.0 | 55 | 85 | 71.0 | 56.6 | 29.974 | 7.26 | 0.0 | 0 | 0.00 | 0.00 | 0.00 | 0.00 |
| 05/08/26 4:11:21 AM | 38 | 0.0 | 3.0 | 55 | 85 | 71.0 | 56.5 | 29.974 | 7.26 | 0.0 | 0 | 0.00 | 0.00 | 0.00 | 0.00 |
| 05/08/26 4:12:32 AM | 38 | 0.0 | 3.0 | 55 | 85 | 71.0 | 56.5 | 29.976 | 7.26 | 0.0 | 0 | 0.00 | 0.00 | 0.00 | 0.00 |
| 05/08/26 4:13:20 AM | 36 | 0.0 | 3.0 | 55 | 85 | 71.0 | 56.5 | 29.975 | 7.26 | 0.0 | 0 | 0.00 | 0.00 | 0.00 | 0.00 |
| 05/08/26 4:14:33 AM | 35 | 0.0 | 3.0 | 55 | 85 | 71.0 | 56.4 | 29.977 | 7.26 | 0.0 | 0 | 0.00 | 0.00 | 0.00 | 0.00 |
| 05/08/26 4:15:49 AM | 38 | 0.0 | 3.0 | 55 | 85 | 71.0 | 56.4 | 29.975 | 7.26 | 0.0 | 0 | 0.00 | 0.00 | 0.00 | 0.00 |
| 05/08/26 4:16:20 AM | 35 | 0.0 | 3.0 | 55 | 85 | 71.0 | 56.4 | 29.978 | 7.26 | 0.0 | 0 | 0.00 | 0.00 | 0.00 | 0.00 |
| 05/08/26 4:17:33 AM | 36 | 0.0 | 3.0 | 55 | 85 | 71.0 | 56.4 | 29.978 | 7.26 | 0.0 | 0 | 0.00 | 0.00 | 0.00 | 0.00 |
| 05/08/26 4:18:25 AM | 38 | 0.0 | 3.0 | 55 | 85 | 71.0 | 56.4 | 29.978 | 7.26 | 0.0 | 0 | 0.00 | 0.00 | 0.00 | 0.00 |
| 05/08/26 4:19:32 AM | 36 | 0.0 | 3.0 | 55 | 85 | 71.0 | 56.3 | 29.977 | 7.26 | 0.0 | 0 | 0.00 | 0.00 | 0.00 | 0.00 |
| 05/08/26 4:20:24 AM | 38 | 0.0 | 3.0 | 55 | 85 | 71.0 | 56.3 | 29.976 | 7.26 | 0.0 | 0 | 0.00 | 0.00 | 0.00 | 0.00 |
| 05/08/26 4:21:16 AM | 35 | 0.0 | 3.0 | 55 | 85 | 71.0 | 56.3 | 29.977 | 7.26 | 0.0 | 0 | 0.00 | 0.00 | 0.00 | 0.00 |
| 05/08/26 4:22:26 AM | 36 | 0.0 | 3.0 | 55 | 85 | 71.0 | 56.3 | 29.977 | 7.26 | 0.0 | 0 | 0.00 | 0.00 | 0.00 | 0.00 |
| 05/08/26 4:23:18 AM | 38 | 0.0 | 3.0 | 55 | 85 | 71.0 | 56.3 | 29.978 | 7.26 | 0.0 | 0 | 0.00 | 0.00 | 0.00 | 0.00 |
| 05/08/26 4:24:28 AM | 38 | 0.0 | 3.0 | 55 | 85 | 71.0 | 56.3 | 29.974 | 7.26 | 0.0 | 0 | 0.00 | 0.00 | 0.00 | 0.00 |
| 05/08/26 4:25:20 AM | 35 | 0.0 | 3.0 | 55 | 85 | 71.0 | 56.3 | 29.978 | 7.26 | 0.0 | 0 | 0.00 | 0.00 | 0.00 | 0.00 |
| 05/08/26 4:26:33 AM | 38 | 0.0 | 3.0 | 55 | 85 | 71.0 | 56.3 | 29.978 | 7.26 | 0.0 | 0 | 0.00 | 0.00 | 0.00 | 0.00 |
| 05/08/26 4:27:25 AM | 36 | 0.0 | 3.0 | 55 | 85 | 70.9 | 56.3 | 29.975 | 7.26 | 0.0 | 0 | 0.00 | 0.00 | 0.00 | 0.00 |
| 05/08/26 4:28:17 AM | 38 | 0.0 | 3.0 | 55 | 85 | 70.9 | 56.3 | 29.977 | 7.26 | 0.0 | 0 | 0.00 | 0.00 | 0.00 | 0.00 |
| 05/08/26 4:29:30 AM | 36 | 0.0 | 3.0 | 55 | 85 | 71.0 | 56.2 | 29.978 | 7.26 | 0.0 | 0 | 0.00 | 0.00 | 0.00 | 0.00 |
| 05/08/26 4:30:19 AM | 38 | 0.0 | 3.0 | 55 | 85 | 70.9 | 56.2 | 29.977 | 7.26 | 0.0 | 0 | 0.00 | 0.00 | 0.00 | 0.00 |
| 05/08/26 4:31:29 AM | 39 | 0.0 | 3.0 | 55 | 85 | 70.9 | 56.2 | 29.977 | 7.26 | 0.0 | 0 | 0.00 | 0.00 | 0.00 | 0.00 |
| 05/08/26 4:32:21 AM | 38 | 0.0 | 3.0 | 55 | 86 | 70.9 | 56.2 | 29.978 | 7.26 | 0.0 | 0 | 0.00 | 0.00 | 0.00 | 0.00 |
| 05/08/26 4:33:34 AM | 36 | 0.0 | 3.0 | 55 | 86 | 70.9 | 56.2 | 29.979 | 7.26 | 0.0 | 0 | 0.00 | 0.00 | 0.00 | 0.00 |
| 05/08/26 4:34:26 AM | 32 | 0.0 | 3.0 | 55 | 86 | 70.9 | 56.2 | 29.978 | 7.26 | 0.0 | 0 | 0.00 | 0.00 | 0.00 | 0.00 |
| 05/08/26 4:35:33 AM | 34 | 0.0 | 3.0 | 55 | 86 | 70.9 | 56.2 | 29.977 | 7.26 | 0.0 | 0 | 0.00 | 0.00 | 0.00 | 0.00 |
| 05/08/26 4:36:27 AM | 38 | 0.0 | 3.0 | 55 | 86 | 70.9 | 56.2 | 29.979 | 7.26 | 0.0 | 0 | 0.00 | 0.00 | 0.00 | 0.00 |
| 05/08/26 4:37:19 AM | 36 | 0.0 | 3.0 | 55 | 86 | 70.9 | 56.2 | 29.979 | 7.26 | 0.0 | 0 | 0.00 | 0.00 | 0.00 | 0.00 |
| 05/08/26 4:38:30 AM | 38 | 0.0 | 3.0 | 55 | 86 | 70.9 | 56.2 | 29.979 | 7.26 | 0.0 | 0 | 0.00 | 0.00 | 0.00 | 0.00 |
| 05/08/26 4:39:24 AM | 36 | 0.0 | 3.0 | 55 | 86 | 70.8 | 56.2 | 29.976 | 7.26 | 0.0 | 0 | 0.00 | 0.00 | 0.00 | 0.00 |
| 05/08/26 4:40:31 AM | 38 | 0.0 | 3.0 | 55 | 86 | 70.9 | 56.1 | 29.977 | 7.26 | 0.0 | 0 | 0.00 | 0.00 | 0.00 | 0.00 |
| 05/08/26 4:41:23 AM | 38 | 0.0 | 3.0 | 55 | 86 | 70.8 | 56.2 | 29.979 | 7.26 | 0.0 | 0 | 0.00 | 0.00 | 0.00 | 0.00 |
| 05/08/26 4:42:36 AM | 38 | 0.0 | 3.0 | 55 | 86 | 70.8 | 56.1 | 29.978 | 7.26 | 0.0 | 0 | 0.00 | 0.00 | 0.00 | 0.00 |
| 05/08/26 4:43:28 AM | 35 | 0.0 | 3.0 | 55 | 86 | 70.8 | 56.1 | 29.979 | 7.26 | 0.0 | 0 | 0.00 | 0.00 | 0.00 | 0.00 |
| 05/08/26 4:44:20 AM | 38 | 0.0 | 3.0 | 55 | 86 | 70.8 | 56.1 | 29.978 | 7.26 | 0.0 | 0 | 0.00 | 0.00 | 0.00 | 0.00 |
| 05/08/26 4:45:33 AM | 35 | 0.0 | 3.0 | 55 | 86 | 70.8 | 56.1 | 29.979 | 7.26 | 0.0 | 0 | 0.00 | 0.00 | 0.00 | 0.00 |
| 05/08/26 4:46:19 AM | 36 | 0.0 | 3.0 | 55 | 86 | 70.8 | 56.1 | 29.979 | 7.26 | 0.0 | 0 | 0.00 | 0.00 | 0.00 | 0.00 |
| 05/08/26 4:47:32 AM | 34 | 0.0 | 3.0 | 55 | 86 | 70.8 | 56.1 | 29.979 | 7.26 | 0.0 | 0 | 0.00 | 0.00 | 0.00 | 0.00 |
| 05/08/26 4:48:24 AM | 38 | 0.0 | 3.0 | 55 | 86 | 70.8 | 56.1 | 29.981 | 7.26 | 0.0 | 0 | 0.00 | 0.00 | 0.00 | 0.00 |
| 05/08/26 4:49:34 AM | 35 | 0.0 | 3.0 | 55 | 86 | 70.8 | 56.1 | 29.981 | 7.26 | 0.0 | 0 | 0.00 | 0.00 | 0.00 | 0.00 |
| 05/08/26 4:50:26 AM | 36 | 0.0 | 3.0 | 55 | 86 | 70.8 | 56.0 | 29.981 | 7.26 | 0.0 | 0 | 0.00 | 0.00 | 0.00 | 0.00 |
| 05/08/26 4:51:33 AM | 36 | 0.0 | 3.0 | 55 | 86 | 70.8 | 56.0 | 29.981 | 7.26 | 0.0 | 0 | 0.00 | 0.00 | 0.00 | 0.00 |
| 05/08/26 4:52:28 AM | 36 | 0.0 | 3.0 | 55 | 86 | 70.8 | 56.0 | 29.983 | 7.26 | 0.0 | 0 | 0.00 | 0.00 | 0.00 | 0.00 |
| 05/08/26 4:53:20 AM | 34 | 0.0 | 3.0 | 55 | 86 | 70.8 | 56.0 | 29.984 | 7.26 | 0.0 | 0 | 0.00 | 0.00 | 0.00 | 0.00 |
| 05/08/26 4:54:30 AM | 35 | 0.0 | 3.0 | 55 | 86 | 70.8 | 56.0 | 29.984 | 7.26 | 0.0 | 0 | 0.00 | 0.00 | 0.00 | 0.00 |
| 05/08/26 4:55:25 AM | 38 | 0.0 | 3.0 | 55 | 86 | 70.8 | 56.0 | 29.983 | 7.26 | 0.0 | 0 | 0.00 | 0.00 | 0.00 | 0.00 |
| 05/08/26 4:56:32 AM | 38 | 0.0 | 3.0 | 55 | 86 | 70.8 | 56.0 | 29.983 | 7.26 | 0.0 | 0 | 0.00 | 0.00 | 0.00 | 0.00 |
| 05/08/26 4:57:23 AM | 32 | 0.0 | 3.0 | 55 | 86 | 70.8 | 55.9 | 29.983 | 7.26 | 0.0 | 0 | 0.00 | 0.00 | 0.00 | 0.00 |
| 05/08/26 4:58:34 AM | 36 | 0.0 | 3.0 | 55 | 86 | 70.8 | 55.9 | 29.983 | 7.26 | 0.0 | 0 | 0.00 | 0.00 | 0.00 | 0.00 |
| 05/08/26 4:59:25 AM | 36 | 0.0 | 3.0 | 55 | 86 | 70.8 | 55.9 | 29.985 | 7.26 | 0.0 | 0 | 0.00 | 0.00 | 0.00 | 0.00 |
| 05/08/26 5:00:20 AM | 35 | 0.0 | 3.0 | 55 | 86 | 70.8 | 55.9 | 29.983 | 7.26 | 0.0 | 0 | 0.00 | 0.00 | 0.00 | 0.00 |
| 05/08/26 5:01:30 AM | 36 | 0.0 | 3.0 | 55 | 86 | 70.8 | 55.8 | 29.983 | 7.26 | 0.0 | 0 | 0.00 | 0.00 | 0.00 | 0.00 |
| 05/08/26 5:02:16 AM | 35 | 0.0 | 3.0 | 55 | 86 | 70.8 | 55.8 | 29.984 | 7.26 | 0.0 | 0 | 0.00 | 0.00 | 0.00 | 0.00 |
| 05/08/26 5:03:29 AM | 36 | 0.0 | 3.0 | 55 | 86 | 70.8 | 55.8 | 29.984 | 7.26 | 0.0 | 0 | 0.00 | 0.00 | 0.00 | 0.00 |
| 05/08/26 5:04:21 AM | 36 | 0.0 | 3.0 | 55 | 86 | 70.8 | 55.8 | 29.983 | 7.26 | 0.0 | 0 | 0.00 | 0.00 | 0.00 | 0.00 |
| 05/08/26 5:05:34 AM | 38 | 0.0 | 3.0 | 55 | 86 | 70.7 | 55.8 | 29.982 | 7.26 | 0.0 | 0 | 0.00 | 0.00 | 0.00 | 0.00 |
| 05/08/26 5:06:26 AM | 34 | 0.0 | 3.0 | 55 | 86 | 70.6 | 55.7 | 29.983 | 7.26 | 0.0 | 0 | 0.00 | 0.00 | 0.00 | 0.00 |
| 05/08/26 5:07:33 AM | 34 | 0.0 | 3.0 | 55 | 86 | 70.6 | 55.7 | 29.985 | 7.26 | 0.0 | 0 | 0.00 | 0.00 | 0.00 | 0.00 |
| 05/08/26 5:08:25 AM | 38 | 0.0 | 3.0 | 55 | 86 | 70.5 | 55.7 | 29.984 | 7.26 | 0.0 | 0 | 0.00 | 0.00 | 0.00 | 0.00 |
| 05/08/26 5:09:35 AM | 38 | 0.0 | 3.0 | 55 | 86 | 70.3 | 55.7 | 29.982 | 7.26 | 0.0 | 0 | 0.00 | 0.00 | 0.00 | 0.00 |
| 05/08/26 5:10:27 AM | 38 | 0.0 | 3.0 | 55 | 86 | 70.2 | 55.7 | 29.984 | 7.26 | 0.0 | 0 | 0.00 | 0.00 | 0.00 | 0.00 |
| 05/08/26 5:11:19 AM | 36 | 0.0 | 3.0 | 55 | 86 | 70.1 | 55.7 | 29.984 | 7.26 | 0.0 | 0 | 0.00 | 0.00 | 0.00 | 0.00 |
| 05/08/26 5:12:29 AM | 38 | 0.0 | 3.0 | 55 | 86 | 70.0 | 55.6 | 29.982 | 7.26 | 0.0 | 0 | 0.00 | 0.00 | 0.00 | 0.00 |
| 05/08/26 5:13:21 AM | 38 | 0.0 | 3.0 | 55 | 86 | 69.9 | 55.6 | 29.982 | 7.26 | 0.0 | 0 | 0.00 | 0.00 | 0.00 | 0.00 |
| 05/08/26 5:14:31 AM | 39 | 0.0 | 3.0 | 55 | 86 | 69.7 | 55.6 | 29.984 | 7.26 | 0.0 | 0 | 0.00 | 0.00 | 0.00 | 0.00 |
| 05/08/26 5:15:26 AM | 36 | 0.0 | 3.0 | 55 | 86 | 69.7 | 55.5 | 29.982 | 7.26 | 0.0 | 0 | 0.00 | 0.00 | 0.00 | 0.00 |
| 05/08/26 5:16:18 AM | 36 | 0.0 | 3.0 | 55 | 86 | 69.6 | 55.6 | 29.983 | 7.26 | 0.0 | 0 | 0.00 | 0.00 | 0.00 | 0.00 |
| 05/08/26 5:17:28 AM | 32 | 0.0 | 3.0 | 55 | 86 | 69.4 | 55.5 | 29.985 | 7.26 | 0.0 | 0 | 0.00 | 0.00 | 0.00 | 0.00 |
| 05/08/26 5:18:17 AM | 38 | 0.0 | 3.0 | 55 | 86 | 69.4 | 55.5 | 29.984 | 7.26 | 0.0 | 0 | 0.00 | 0.00 | 0.00 | 0.00 |
| 05/08/26 5:19:27 AM | 38 | 0.0 | 3.0 | 55 | 86 | 69.2 | 55.5 | 29.984 | 7.26 | 0.0 | 0 | 0.00 | 0.00 | 0.00 | 0.00 |
| 05/08/26 5:20:19 AM | 38 | 0.0 | 3.0 | 55 | 86 | 69.1 | 55.5 | 29.984 | 7.26 | 0.0 | 0 | 0.00 | 0.00 | 0.00 | 0.00 |
| 05/08/26 5:21:32 AM | 35 | 0.0 | 3.0 | 55 | 86 | 69.0 | 55.5 | 29.983 | 7.26 | 0.0 | 0 | 0.00 | 0.00 | 0.00 | 0.00 |
| 05/08/26 5:22:24 AM | 36 | 0.0 | 3.0 | 56 | 86 | 68.9 | 55.4 | 29.983 | 7.26 | 0.0 | 0 | 0.00 | 0.00 | 0.00 | 0.00 |
| 05/08/26 5:23:31 AM | 32 | 0.0 | 3.0 | 56 | 86 | 68.9 | 55.4 | 29.982 | 7.26 | 0.0 | 0 | 0.00 | 0.00 | 0.00 | 0.00 |
| 05/08/26 5:24:23 AM | 38 | 0.0 | 3.0 | 56 | 86 | 68.7 | 55.4 | 29.985 | 7.26 | 0.0 | 0 | 0.00 | 0.00 | 0.00 | 0.00 |
| 05/08/26 5:25:36 AM | 35 | 0.0 | 3.0 | 56 | 86 | 68.7 | 55.4 | 29.987 | 7.26 | 0.0 | 0 | 0.00 | 0.00 | 0.00 | 0.00 |
| 05/08/26 5:26:28 AM | 36 | 0.0 | 3.0 | 56 | 86 | 68.6 | 55.4 | 29.988 | 7.26 | 0.0 | 0 | 0.00 | 0.00 | 0.00 | 0.00 |
| 05/08/26 5:27:20 AM | 38 | 0.0 | 3.0 | 56 | 86 | 68.5 | 55.4 | 29.987 | 7.26 | 0.0 | 0 | 0.00 | 0.00 | 0.00 | 0.00 |
| 05/08/26 5:28:27 AM | 31 | 0.0 | 3.0 | 57 | 87 | 68.4 | 55.3 | 29.988 | 7.26 | 0.0 | 0 | 0.00 | 0.00 | 0.00 | 0.00 |
| 05/08/26 5:29:19 AM | 36 | 0.0 | 3.0 | 57 | 87 | 68.3 | 55.3 | 29.988 | 7.26 | 0.0 | 0 | 0.00 | 0.00 | 0.00 | 0.00 |
| 05/08/26 5:30:32 AM | 35 | 0.0 | 3.0 | 57 | 87 | 68.3 | 55.4 | 29.991 | 7.26 | 0.0 | 0 | 0.00 | 0.00 | 0.00 | 0.00 |
| 05/08/26 5:31:24 AM | 38 | 0.0 | 3.0 | 57 | 87 | 68.2 | 55.4 | 29.989 | 7.26 | 0.0 | 0 | 0.00 | 0.00 | 0.00 | 0.00 |
| 05/08/26 5:32:16 AM | 35 | 0.0 | 3.0 | 57 | 87 | 68.2 | 55.4 | 29.990 | 7.26 | 0.0 | 0 | 0.00 | 0.00 | 0.00 | 0.00 |
| 05/08/26 5:33:29 AM | 38 | 0.0 | 3.0 | 57 | 87 | 68.1 | 55.3 | 29.990 | 7.26 | 0.0 | 0 | 0.00 | 0.00 | 0.00 | 0.00 |
| 05/08/26 5:34:36 AM | 36 | 0.0 | 3.0 | 57 | 87 | 68.1 | 55.3 | 29.988 | 7.26 | 0.0 | 0 | 0.00 | 0.00 | 0.00 | 0.00 |
| 05/08/26 5:35:28 AM | 38 | 0.0 | 3.0 | 58 | 87 | 68.0 | 55.3 | 29.991 | 7.26 | 0.0 | 0 | 0.00 | 0.00 | 0.00 | 0.00 |
| 05/08/26 5:36:20 AM | 38 | 0.0 | 3.0 | 58 | 87 | 67.9 | 55.3 | 29.991 | 7.26 | 0.0 | 0 | 0.00 | 0.00 | 0.00 | 0.00 |
| 05/08/26 5:37:33 AM | 35 | 0.0 | 3.0 | 58 | 87 | 67.8 | 55.3 | 29.990 | 7.26 | 0.0 | 0 | 0.00 | 0.00 | 0.00 | 0.00 |
| 05/08/26 5:38:22 AM | 38 | 0.0 | 3.0 | 58 | 87 | 67.8 | 55.3 | 29.992 | 7.26 | 0.0 | 0 | 0.00 | 0.00 | 0.00 | 0.00 |
| 05/08/26 5:39:32 AM | 38 | 0.0 | 3.0 | 58 | 87 | 67.7 | 55.3 | 29.991 | 7.26 | 0.0 | 0 | 0.00 | 0.00 | 0.00 | 0.00 |
| 05/08/26 5:40:25 AM | 38 | 0.0 | 3.0 | 58 | 87 | 67.7 | 55.3 | 29.992 | 7.26 | 0.0 | 0 | 0.00 | 0.00 | 0.00 | 0.00 |
| 05/08/26 5:41:35 AM | 36 | 0.0 | 3.0 | 58 | 87 | 67.6 | 55.3 | 29.994 | 7.26 | 0.0 | 0 | 0.00 | 0.00 | 0.00 | 0.00 |
| 05/08/26 5:42:30 AM | 35 | 0.0 | 3.0 | 58 | 87 | 67.6 | 55.3 | 29.991 | 7.26 | 0.0 | 0 | 0.00 | 0.00 | 0.00 | 0.00 |
| 05/08/26 5:43:19 AM | 36 | 0.0 | 3.0 | 58 | 87 | 67.6 | 55.3 | 29.991 | 7.26 | 0.0 | 0 | 0.00 | 0.00 | 0.00 | 0.00 |
| 05/08/26 5:44:29 AM | 36 | 0.0 | 3.0 | 58 | 87 | 67.5 | 55.3 | 29.990 | 7.26 | 0.0 | 0 | 0.00 | 0.00 | 0.00 | 0.00 |
| 05/08/26 5:45:21 AM | 35 | 0.0 | 3.0 | 58 | 87 | 67.5 | 55.3 | 29.992 | 7.26 | 0.0 | 0 | 0.00 | 0.00 | 0.00 | 0.00 |
| 05/08/26 5:46:34 AM | 35 | 0.0 | 3.0 | 58 | 87 | 67.4 | 55.3 | 29.991 | 7.26 | 0.0 | 0 | 0.00 | 0.00 | 0.00 | 0.00 |
| 05/08/26 5:47:26 AM | 32 | 0.0 | 3.0 | 58 | 87 | 67.4 | 55.3 | 29.991 | 7.26 | 0.0 | 0 | 0.00 | 0.00 | 0.00 | 0.00 |
| 05/08/26 5:48:18 AM | 38 | 0.0 | 3.0 | 58 | 87 | 67.3 | 55.3 | 29.991 | 7.26 | 0.0 | 0 | 0.00 | 0.00 | 0.00 | 0.00 |
| 05/08/26 5:49:30 AM | 36 | 0.0 | 3.0 | 58 | 87 | 67.2 | 55.3 | 29.992 | 7.26 | 0.0 | 0 | 0.00 | 0.00 | 0.00 | 0.00 |
| 05/08/26 5:50:20 AM | 36 | 0.0 | 3.0 | 58 | 87 | 67.2 | 55.3 | 29.992 | 7.26 | 0.0 | 0 | 0.00 | 0.00 | 0.00 | 0.00 |
| 05/08/26 5:51:30 AM | 31 | 0.0 | 3.0 | 58 | 87 | 67.2 | 55.3 | 29.990 | 7.26 | 0.0 | 0 | 0.00 | 0.00 | 0.00 | 0.00 |
| 05/08/26 5:52:21 AM | 31 | 0.0 | 3.0 | 59 | 87 | 67.1 | 55.3 | 29.990 | 7.26 | 0.0 | 0 | 0.00 | 0.00 | 0.00 | 0.00 |
| 05/08/26 5:53:35 AM | 31 | 0.0 | 3.0 | 59 | 87 | 67.1 | 55.2 | 29.990 | 7.26 | 0.0 | 0 | 0.00 | 0.00 | 0.00 | 0.00 |
| 05/08/26 5:54:26 AM | 34 | 0.0 | 3.0 | 59 | 87 | 67.1 | 55.2 | 29.991 | 7.26 | 0.0 | 0 | 0.00 | 0.00 | 0.00 | 0.00 |
| 05/08/26 5:55:37 AM | 36 | 0.0 | 3.0 | 59 | 87 | 66.9 | 55.2 | 29.990 | 7.26 | 0.0 | 0 | 0.00 | 0.00 | 0.00 | 0.00 |
| 05/08/26 5:56:28 AM | 36 | 0.0 | 3.0 | 59 | 87 | 66.8 | 55.2 | 29.990 | 7.26 | 0.0 | 5 | 0.00 | 0.00 | 0.00 | 0.00 |
| 05/08/26 5:57:20 AM | 36 | 0.0 | 3.0 | 59 | 87 | 66.8 | 55.2 | 29.991 | 7.26 | 0.0 | 5 | 0.00 | 0.00 | 0.00 | 0.00 |
| 05/08/26 5:58:33 AM | 35 | 0.0 | 3.0 | 59 | 87 | 66.8 | 55.1 | 29.991 | 7.26 | 0.0 | 5 | 0.00 | 0.00 | 0.00 | 0.00 |
| 05/08/26 5:59:22 AM | 32 | 0.0 | 3.0 | 59 | 87 | 66.8 | 55.1 | 29.993 | 7.26 | 0.0 | 5 | 0.00 | 0.00 | 0.00 | 0.00 |
| 05/08/26 6:00:33 AM | 38 | 0.0 | 3.0 | 59 | 87 | 66.7 | 55.1 | 29.991 | 7.26 | 0.0 | 5 | 0.00 | 0.00 | 0.00 | 0.00 |
| 05/08/26 6:01:25 AM | 35 | 0.0 | 3.0 | 59 | 87 | 66.7 | 55.1 | 29.996 | 7.26 | 0.0 | 5 | 0.00 | 0.00 | 0.00 | 0.00 |
| 05/08/26 6:02:16 AM | 39 | 0.0 | 3.0 | 59 | 87 | 66.6 | 55.1 | 29.999 | 7.26 | 0.0 | 7 | 0.00 | 0.00 | 0.00 | 0.00 |
| 05/08/26 6:03:29 AM | 31 | 0.0 | 3.0 | 59 | 87 | 66.6 | 55.1 | 29.998 | 7.26 | 0.0 | 7 | 0.00 | 0.00 | 0.00 | 0.00 |
| 05/08/26 6:04:21 AM | 35 | 0.0 | 3.0 | 59 | 87 | 66.5 | 55.0 | 29.999 | 7.26 | 0.0 | 7 | 0.00 | 0.00 | 0.00 | 0.00 |
| 05/08/26 6:05:34 AM | 31 | 0.0 | 3.0 | 59 | 87 | 66.5 | 55.0 | 30.000 | 7.26 | 0.0 | 7 | 0.00 | 0.00 | 0.00 | 0.00 |
| 05/08/26 6:06:23 AM | 35 | 0.0 | 3.0 | 60 | 87 | 66.5 | 55.0 | 30.003 | 7.26 | 0.0 | 7 | 0.00 | 0.00 | 0.00 | 0.00 |
| 05/08/26 6:07:34 AM | 36 | 0.0 | 3.0 | 60 | 87 | 66.5 | 55.0 | 30.003 | 7.26 | 0.0 | 9 | 0.00 | 0.00 | 0.00 | 0.00 |
| 05/08/26 6:08:25 AM | 35 | 0.0 | 3.0 | 60 | 87 | 66.4 | 55.0 | 30.002 | 7.26 | 0.0 | 9 | 0.00 | 0.00 | 0.00 | 0.00 |
| 05/08/26 6:09:17 AM | 36 | 0.0 | 3.0 | 60 | 87 | 66.3 | 54.9 | 30.005 | 7.26 | 0.0 | 9 | 0.00 | 0.00 | 0.00 | 0.00 |
| 05/08/26 6:10:30 AM | 35 | 0.0 | 3.0 | 60 | 87 | 66.3 | 54.9 | 30.003 | 7.26 | 0.0 | 11 | 0.00 | 0.00 | 0.00 | 0.00 |
| 05/08/26 6:11:16 AM | 38 | 0.0 | 3.0 | 60 | 87 | 66.3 | 54.9 | 30.004 | 7.26 | 0.0 | 11 | 0.00 | 0.00 | 0.00 | 0.00 |
| 05/08/26 6:12:29 AM | 31 | 0.0 | 3.0 | 60 | 87 | 66.3 | 54.8 | 30.004 | 7.26 | 0.0 | 12 | 0.00 | 0.00 | 0.00 | 0.00 |
| 05/08/26 6:13:21 AM | 32 | 0.0 | 3.0 | 60 | 87 | 66.3 | 54.8 | 30.005 | 7.26 | 0.0 | 12 | 0.00 | 0.00 | 0.00 | 0.00 |
| 05/08/26 6:14:35 AM | 36 | 0.0 | 3.0 | 60 | 87 | 66.3 | 54.8 | 30.003 | 7.26 | 0.0 | 12 | 0.00 | 0.00 | 0.00 | 0.00 |
| 05/08/26 6:15:26 AM | 38 | 0.0 | 3.0 | 60 | 87 | 66.2 | 54.8 | 30.005 | 7.26 | 0.0 | 14 | 0.00 | 0.00 | 0.00 | 0.00 |
| 05/08/26 6:16:18 AM | 30 | 0.0 | 3.0 | 60 | 87 | 66.2 | 54.8 | 30.006 | 7.26 | 0.0 | 16 | 0.00 | 0.00 | 0.00 | 0.00 |
| 05/08/26 6:17:25 AM | 36 | 0.0 | 3.0 | 60 | 87 | 66.2 | 54.7 | 30.004 | 7.26 | 0.0 | 16 | 0.00 | 0.00 | 0.00 | 0.00 |
| 05/08/26 6:18:17 AM | 35 | 0.0 | 3.0 | 60 | 87 | 66.2 | 54.7 | 30.004 | 7.26 | 0.0 | 16 | 0.00 | 0.00 | 0.00 | 0.00 |
| 05/08/26 6:19:30 AM | 36 | 0.0 | 3.0 | 60 | 87 | 66.2 | 54.7 | 30.004 | 7.26 | 0.0 | 19 | 0.00 | 0.00 | 0.00 | 0.00 |
| 05/08/26 6:20:19 AM | 38 | 0.0 | 3.0 | 60 | 87 | 66.1 | 54.7 | 30.003 | 7.26 | 0.0 | 19 | 0.00 | 0.00 | 0.00 | 0.00 |
| 05/08/26 6:21:32 AM | 34 | 0.0 | 3.0 | 60 | 87 | 66.1 | 54.7 | 30.004 | 7.26 | 0.0 | 21 | 0.00 | 0.00 | 0.00 | 0.00 |
| 05/08/26 6:22:21 AM | 38 | 0.0 | 3.0 | 60 | 87 | 66.0 | 54.6 | 30.004 | 7.26 | 0.0 | 23 | 0.00 | 0.00 | 0.00 | 0.00 |
| 05/08/26 6:23:31 AM | 36 | 0.0 | 3.0 | 60 | 87 | 66.0 | 54.6 | 30.004 | 7.26 | 0.0 | 23 | 0.00 | 0.00 | 0.00 | 0.00 |
| 05/08/26 6:24:23 AM | 31 | 0.0 | 3.0 | 60 | 87 | 66.0 | 54.6 | 30.000 | 7.26 | 0.0 | 25 | 0.00 | 0.00 | 0.00 | 0.00 |
| 05/08/26 6:25:36 AM | 35 | 0.0 | 3.0 | 60 | 87 | 65.9 | 54.6 | 30.004 | 7.26 | 0.0 | 32 | 0.00 | 0.00 | 0.00 | 0.00 |
| 05/08/26 6:26:28 AM | 32 | 0.0 | 3.0 | 60 | 87 | 65.9 | 54.6 | 30.004 | 7.26 | 0.0 | 33 | 0.00 | 0.00 | 0.00 | 0.00 |
| 05/08/26 6:27:17 AM | 35 | 0.0 | 3.0 | 60 | 87 | 65.9 | 54.6 | 30.004 | 7.26 | 0.0 | 33 | 0.00 | 0.00 | 0.00 | 0.00 |
| 05/08/26 6:28:27 AM | 38 | 0.0 | 3.0 | 60 | 87 | 65.9 | 54.6 | 30.004 | 7.26 | 0.0 | 35 | 0.00 | 0.00 | 0.00 | 0.00 |
| 05/08/26 6:29:23 AM | 38 | 0.0 | 3.0 | 60 | 87 | 65.8 | 54.5 | 30.004 | 7.26 | 0.0 | 35 | 0.00 | 0.00 | 0.00 | 0.00 |
| 05/08/26 6:30:36 AM | 36 | 0.0 | 3.0 | 60 | 87 | 65.8 | 54.6 | 30.004 | 7.26 | 0.0 | 39 | 0.00 | 0.00 | 0.00 | 0.00 |
| 05/08/26 6:31:28 AM | 36 | 0.0 | 3.0 | 61 | 87 | 65.8 | 54.5 | 30.004 | 7.26 | 0.0 | 39 | 0.00 | 0.00 | 0.00 | 0.00 |
| 05/08/26 6:32:17 AM | 38 | 0.0 | 3.0 | 61 | 87 | 65.7 | 54.5 | 30.003 | 7.26 | 0.0 | 42 | 0.00 | 0.00 | 0.00 | 0.00 |
| 05/08/26 6:33:27 AM | 35 | 0.0 | 3.0 | 61 | 88 | 65.7 | 54.5 | 30.001 | 7.26 | 0.0 | 44 | 0.00 | 0.00 | 0.00 | 0.00 |
| 05/08/26 6:34:19 AM | 38 | 0.0 | 3.0 | 61 | 88 | 65.7 | 54.5 | 30.001 | 7.26 | 0.0 | 44 | 0.00 | 0.00 | 0.00 | 0.00 |
| 05/08/26 6:35:32 AM | 36 | 0.0 | 3.0 | 61 | 88 | 65.7 | 54.5 | 30.001 | 7.26 | 0.0 | 46 | 0.00 | 0.00 | 0.00 | 0.00 |
| 05/08/26 6:36:24 AM | 31 | 0.0 | 3.0 | 61 | 88 | 65.7 | 54.6 | 30.000 | 7.26 | 0.0 | 47 | 0.00 | 0.00 | 0.00 | 0.00 |
| 05/08/26 6:37:37 AM | 32 | 0.0 | 3.0 | 61 | 88 | 65.7 | 54.6 | 30.001 | 7.26 | 0.0 | 49 | 0.00 | 0.00 | 0.00 | 0.00 |
| 05/08/26 6:38:26 AM | 34 | 0.0 | 3.0 | 61 | 88 | 65.6 | 54.7 | 30.001 | 7.26 | 0.0 | 51 | 0.00 | 0.00 | 0.00 | 0.00 |
| 05/08/26 6:39:36 AM | 38 | 0.0 | 3.0 | 61 | 88 | 65.6 | 54.8 | 30.002 | 7.26 | 0.0 | 54 | 0.00 | 0.00 | 0.00 | 0.00 |
| 05/08/26 6:40:28 AM | 35 | 0.0 | 3.0 | 61 | 88 | 65.6 | 54.8 | 30.004 | 7.26 | 0.0 | 54 | 0.00 | 0.00 | 0.00 | 0.00 |
| 05/08/26 6:41:20 AM | 36 | 0.0 | 3.0 | 61 | 88 | 65.5 | 54.8 | 30.000 | 7.26 | 0.0 | 56 | 0.00 | 0.00 | 0.00 | 0.00 |
| 05/08/26 6:42:33 AM | 38 | 0.0 | 3.0 | 61 | 88 | 65.6 | 54.9 | 30.002 | 7.26 | 0.0 | 62 | 0.00 | 0.00 | 0.00 | 0.00 |
| 05/08/26 6:43:22 AM | 32 | 0.0 | 3.0 | 61 | 88 | 65.5 | 54.9 | 30.004 | 7.26 | 0.0 | 65 | 0.00 | 0.00 | 0.00 | 0.00 |
| 05/08/26 6:44:32 AM | 34 | 0.0 | 3.0 | 62 | 88 | 65.5 | 55.0 | 30.004 | 7.26 | 0.0 | 65 | 0.00 | 0.00 | 0.00 | 0.00 |
| 05/08/26 6:45:27 AM | 39 | 0.0 | 3.0 | 62 | 88 | 65.5 | 55.0 | 30.003 | 7.26 | 0.0 | 70 | 0.00 | 0.00 | 0.00 | 0.00 |
| 05/08/26 6:46:19 AM | 36 | 0.0 | 3.0 | 62 | 88 | 65.5 | 55.0 | 30.002 | 7.26 | 0.0 | 70 | 0.00 | 0.00 | 0.00 | 0.00 |
| 05/08/26 6:47:29 AM | 34 | 0.0 | 3.0 | 62 | 88 | 65.5 | 55.1 | 30.005 | 7.26 | 0.0 | 76 | 0.00 | 0.00 | 0.00 | 0.00 |
| 05/08/26 6:48:24 AM | 38 | 0.0 | 3.0 | 62 | 89 | 65.5 | 55.2 | 30.004 | 7.26 | 0.0 | 79 | 0.00 | 0.00 | 0.00 | 0.00 |
| 05/08/26 6:49:31 AM | 36 | 0.0 | 3.0 | 62 | 89 | 65.5 | 55.3 | 30.004 | 7.26 | 0.0 | 81 | 0.00 | 0.00 | 0.00 | 0.00 |
| 05/08/26 6:50:23 AM | 34 | 0.0 | 3.0 | 62 | 89 | 65.5 | 55.4 | 30.005 | 7.26 | 0.0 | 83 | 0.00 | 0.00 | 0.00 | 0.00 |
| 05/08/26 6:51:36 AM | 32 | 0.0 | 3.0 | 62 | 89 | 65.5 | 55.5 | 30.007 | 7.26 | 0.0 | 86 | 0.00 | 0.00 | 0.00 | 0.00 |
| 05/08/26 6:52:28 AM | 35 | 0.0 | 3.0 | 62 | 89 | 65.5 | 55.5 | 30.010 | 7.26 | 0.0 | 88 | 0.00 | 0.00 | 0.00 | 0.00 |
| 05/08/26 6:53:20 AM | 36 | 0.0 | 3.0 | 62 | 89 | 65.5 | 55.6 | 30.006 | 7.26 | 0.0 | 91 | 0.00 | 0.00 | 0.00 | 0.00 |
| 05/08/26 6:54:30 AM | 36 | 0.0 | 3.0 | 62 | 89 | 65.5 | 55.7 | 30.005 | 7.26 | 0.0 | 91 | 0.00 | 0.00 | 0.00 | 0.00 |
| 05/08/26 6:55:19 AM | 32 | 0.0 | 3.0 | 62 | 89 | 65.4 | 55.7 | 30.009 | 7.26 | 0.0 | 95 | 0.00 | 0.00 | 0.00 | 0.00 |
| 05/08/26 6:56:35 AM | 35 | 0.0 | 3.0 | 62 | 89 | 65.4 | 55.7 | 30.007 | 7.26 | 0.0 | 98 | 0.00 | 0.00 | 0.00 | 0.00 |
| 05/08/26 6:57:27 AM | 32 | 0.0 | 3.0 | 62 | 89 | 65.4 | 55.8 | 30.008 | 7.26 | 0.0 | 102 | 0.00 | 0.00 | 0.00 | 0.00 |
| 05/08/26 6:58:16 AM | 35 | 0.0 | 3.0 | 62 | 89 | 65.4 | 55.9 | 30.007 | 7.26 | 0.0 | 102 | 0.00 | 0.00 | 0.00 | 0.00 |
| 05/08/26 6:59:26 AM | 35 | 0.0 | 3.0 | 63 | 89 | 65.4 | 55.9 | 30.007 | 7.26 | 0.0 | 107 | 0.00 | 0.00 | 0.00 | 0.00 |
| 05/08/26 7:00:18 AM | 38 | 0.0 | 3.0 | 63 | 89 | 65.4 | 56.0 | 30.007 | 7.26 | 0.0 | 109 | 0.00 | 0.00 | 0.00 | 0.00 |
| 05/08/26 7:01:31 AM | 36 | 0.0 | 3.0 | 63 | 89 | 65.4 | 56.0 | 30.006 | 7.26 | 0.0 | 113 | 0.00 | 0.00 | 0.00 | 0.00 |
| 05/08/26 7:02:20 AM | 35 | 0.0 | 3.0 | 63 | 89 | 65.4 | 56.2 | 30.007 | 7.26 | 0.0 | 116 | 0.00 | 0.00 | 0.00 | 0.00 |
| 05/08/26 7:03:33 AM | 32 | 0.0 | 3.0 | 63 | 89 | 65.4 | 56.3 | 30.007 | 7.26 | 0.0 | 120 | 0.00 | 0.00 | 0.00 | 0.00 |
| 05/08/26 7:04:28 AM | 35 | 0.0 | 3.0 | 63 | 89 | 65.4 | 56.4 | 30.009 | 7.26 | 0.0 | 123 | 0.00 | 0.00 | 0.00 | 0.00 |
| 05/08/26 7:05:35 AM | 38 | 0.0 | 3.0 | 63 | 89 | 65.4 | 56.5 | 30.007 | 7.26 | 0.0 | 125 | 0.00 | 0.00 | 0.00 | 0.00 |
| 05/08/26 7:06:24 AM | 38 | 0.0 | 3.0 | 63 | 89 | 65.4 | 56.6 | 30.010 | 7.26 | 0.0 | 127 | 0.00 | 0.00 | 0.00 | 0.00 |
| 05/08/26 7:07:19 AM | 36 | 0.0 | 3.0 | 63 | 89 | 65.4 | 56.7 | 30.008 | 7.26 | 0.0 | 128 | 0.00 | 0.00 | 0.00 | 0.00 |
| 05/08/26 7:08:29 AM | 34 | 0.0 | 3.0 | 63 | 89 | 65.4 | 56.8 | 30.008 | 7.26 | 0.0 | 132 | 0.00 | 0.00 | 0.00 | 0.00 |
| 05/08/26 7:09:18 AM | 34 | 0.0 | 3.0 | 63 | 89 | 65.4 | 56.9 | 30.009 | 7.26 | 0.0 | 134 | 0.00 | 0.00 | 0.00 | 0.00 |
| 05/08/26 7:10:29 AM | 32 | 0.0 | 3.0 | 63 | 89 | 65.4 | 57.0 | 30.011 | 7.26 | 0.0 | 135 | 0.00 | 0.00 | 0.00 | 0.00 |
| 05/08/26 7:11:21 AM | 36 | 0.0 | 3.0 | 64 | 89 | 65.4 | 57.1 | 30.012 | 7.26 | 0.0 | 139 | 0.00 | 0.00 | 0.00 | 0.00 |
| 05/08/26 7:12:31 AM | 38 | 0.0 | 3.0 | 64 | 89 | 65.4 | 57.2 | 30.011 | 7.26 | 0.0 | 146 | 0.00 | 0.00 | 0.00 | 0.00 |
| 05/08/26 7:13:23 AM | 35 | 0.0 | 3.0 | 64 | 89 | 65.4 | 57.2 | 30.011 | 7.26 | 0.0 | 146 | 0.00 | 0.00 | 0.00 | 0.00 |
| 05/08/26 7:14:36 AM | 31 | 0.0 | 3.0 | 64 | 89 | 65.5 | 57.3 | 30.010 | 7.26 | 0.0 | 149 | 0.00 | 0.00 | 0.00 | 0.00 |
| 05/08/26 7:15:28 AM | 36 | 0.0 | 3.0 | 64 | 89 | 65.4 | 57.4 | 30.010 | 7.26 | 0.0 | 149 | 0.00 | 0.00 | 0.00 | 0.00 |
| 05/08/26 7:16:35 AM | 36 | 0.0 | 3.0 | 64 | 89 | 65.4 | 57.5 | 30.009 | 7.26 | 0.0 | 149 | 0.00 | 0.00 | 0.00 | 0.00 |
| 05/08/26 7:17:27 AM | 36 | 0.0 | 3.0 | 64 | 89 | 65.5 | 57.5 | 30.008 | 7.26 | 0.0 | 155 | 0.00 | 0.00 | 0.00 | 0.00 |
| 05/08/26 7:18:19 AM | 38 | 0.0 | 3.0 | 64 | 89 | 65.4 | 57.6 | 30.006 | 7.26 | 0.0 | 158 | 0.00 | 0.00 | 0.00 | 0.00 |
| 05/08/26 7:19:29 AM | 34 | 0.0 | 3.0 | 64 | 89 | 65.4 | 57.6 | 30.007 | 7.26 | 0.0 | 156 | 0.00 | 0.00 | 0.00 | 0.00 |
| 05/08/26 7:20:21 AM | 38 | 0.0 | 3.0 | 64 | 89 | 65.5 | 57.7 | 30.009 | 7.26 | 0.0 | 146 | 0.00 | 0.00 | 0.00 | 0.00 |
| 05/08/26 7:21:31 AM | 36 | 0.0 | 3.0 | 64 | 89 | 65.4 | 57.8 | 30.008 | 7.26 | 0.0 | 156 | 0.00 | 0.00 | 0.00 | 0.00 |
| 05/08/26 7:22:20 AM | 31 | 0.0 | 3.0 | 64 | 89 | 65.4 | 57.8 | 30.009 | 7.26 | 0.0 | 162 | 0.00 | 0.00 | 0.00 | 0.00 |
| 05/08/26 7:23:33 AM | 38 | 0.0 | 3.0 | 64 | 88 | 65.4 | 57.9 | 30.007 | 7.26 | 0.0 | 169 | 0.00 | 0.00 | 0.00 | 0.00 |
| 05/08/26 7:24:25 AM | 36 | 0.0 | 3.0 | 64 | 88 | 65.4 | 57.9 | 30.007 | 7.26 | 0.0 | 172 | 0.00 | 0.00 | 0.00 | 0.00 |
| 05/08/26 7:25:17 AM | 36 | 0.0 | 3.0 | 64 | 88 | 65.5 | 58.0 | 30.005 | 7.26 | 0.0 | 169 | 0.00 | 0.00 | 0.00 | 0.00 |
| 05/08/26 7:26:24 AM | 36 | 0.0 | 3.0 | 64 | 88 | 65.5 | 58.0 | 30.004 | 7.26 | 0.0 | 183 | 0.00 | 0.00 | 0.00 | 0.00 |
| 05/08/26 7:27:16 AM | 36 | 0.0 | 3.0 | 64 | 88 | 65.5 | 58.1 | 30.007 | 7.26 | 0.0 | 183 | 0.00 | 0.00 | 0.00 | 0.00 |
| 05/08/26 7:28:30 AM | 36 | 0.0 | 3.0 | 64 | 88 | 65.5 | 58.1 | 30.005 | 7.26 | 0.0 | 190 | 0.00 | 0.00 | 0.00 | 0.00 |
| 05/08/26 7:29:22 AM | 35 | 0.0 | 3.0 | 64 | 88 | 65.5 | 58.2 | 30.007 | 7.26 | 0.0 | 188 | 0.00 | 0.00 | 0.00 | 0.00 |
| 05/08/26 7:30:35 AM | 35 | 0.0 | 3.0 | 65 | 88 | 65.5 | 58.2 | 30.007 | 7.26 | 0.0 | 192 | 0.00 | 0.00 | 0.00 | 0.00 |
| 05/08/26 7:31:21 AM | 38 | 0.0 | 3.0 | 65 | 88 | 65.5 | 58.3 | 30.005 | 7.26 | 0.0 | 197 | 0.00 | 0.00 | 0.00 | 0.00 |
| 05/08/26 7:32:31 AM | 36 | 0.0 | 3.0 | 65 | 88 | 65.5 | 58.4 | 30.007 | 7.26 | 0.0 | 202 | 0.00 | 0.00 | 0.00 | 0.00 |
| 05/08/26 7:33:23 AM | 34 | 0.0 | 3.0 | 65 | 88 | 65.5 | 58.4 | 30.007 | 7.26 | 0.0 | 207 | 0.00 | 0.00 | 0.00 | 0.00 |
| 05/08/26 7:34:18 AM | 37 | 2.0 | 3.0 | 65 | 88 | 65.5 | 58.5 | 30.008 | 7.26 | 0.0 | 207 | 0.00 | 0.00 | 0.00 | 0.00 |
| 05/08/26 7:35:28 AM | 37 | 3.0 | 3.0 | 65 | 88 | 65.5 | 58.7 | 30.007 | 7.26 | 0.0 | 214 | 0.00 | 0.00 | 0.00 | 0.00 |
| 05/08/26 7:36:20 AM | 36 | 2.0 | 3.0 | 65 | 88 | 65.6 | 58.7 | 30.008 | 7.26 | 0.0 | 218 | 0.00 | 0.00 | 0.00 | 0.00 |
| 05/08/26 7:37:27 AM | 38 | 1.0 | 3.0 | 65 | 88 | 65.6 | 58.8 | 30.007 | 7.26 | 0.0 | 218 | 0.00 | 0.00 | 0.00 | 0.00 |
| 05/08/26 7:38:22 AM | 36 | 1.0 | 3.0 | 65 | 88 | 65.6 | 58.8 | 30.009 | 7.26 | 0.0 | 225 | 0.00 | 0.00 | 0.00 | 0.00 |
| 05/08/26 7:39:32 AM | 35 | 0.0 | 3.0 | 65 | 88 | 65.6 | 58.9 | 30.008 | 7.26 | 0.0 | 230 | 0.00 | 0.00 | 0.00 | 0.00 |
| 05/08/26 7:40:24 AM | 34 | 2.0 | 3.0 | 65 | 88 | 65.5 | 58.9 | 30.010 | 7.26 | 0.5 | 230 | 0.00 | 0.00 | 0.00 | 0.00 |
| 05/08/26 7:41:16 AM | 37 | 2.0 | 3.0 | 65 | 88 | 65.6 | 59.0 | 30.007 | 7.26 | 0.5 | 234 | 0.00 | 0.00 | 0.00 | 0.00 |
| 05/08/26 7:42:23 AM | 35 | 0.0 | 3.0 | 65 | 88 | 65.6 | 59.1 | 30.009 | 7.26 | 0.5 | 244 | 0.00 | 0.00 | 0.00 | 0.00 |
| 05/08/26 7:43:15 AM | 31 | 0.0 | 3.0 | 65 | 87 | 65.6 | 59.1 | 30.010 | 7.26 | 0.5 | 244 | 0.00 | 0.00 | 0.00 | 0.00 |
| 05/08/26 7:44:29 AM | 38 | 0.0 | 3.0 | 65 | 87 | 65.6 | 59.2 | 30.009 | 7.26 | 0.5 | 251 | 0.00 | 0.00 | 0.00 | 0.00 |
| 05/08/26 7:45:21 AM | 34 | 1.0 | 3.0 | 65 | 87 | 65.6 | 59.3 | 30.010 | 7.26 | 0.5 | 251 | 0.00 | 0.00 | 0.00 | 0.00 |
| 05/08/26 7:46:34 AM | 32 | 2.0 | 3.0 | 65 | 87 | 65.6 | 59.3 | 30.009 | 7.26 | 0.5 | 258 | 0.00 | 0.00 | 0.00 | 0.00 |
| 05/08/26 7:47:20 AM | 38 | 2.0 | 3.0 | 65 | 87 | 65.6 | 59.4 | 30.010 | 7.26 | 0.5 | 262 | 0.00 | 0.00 | 0.00 | 0.00 |
| 05/08/26 7:48:36 AM | 37 | 0.0 | 3.0 | 65 | 87 | 65.7 | 59.4 | 30.010 | 7.26 | 0.5 | 267 | 0.00 | 0.00 | 0.00 | 0.00 |
| 05/08/26 7:49:25 AM | 37 | 0.0 | 3.0 | 65 | 87 | 65.6 | 59.4 | 30.010 | 7.26 | 0.6 | 272 | 0.00 | 0.00 | 0.00 | 0.00 |
| 05/08/26 7:50:17 AM | 32 | 0.0 | 3.0 | 65 | 87 | 65.7 | 59.5 | 30.008 | 7.26 | 0.6 | 274 | 0.00 | 0.00 | 0.00 | 0.00 |
| 05/08/26 7:51:30 AM | 34 | 1.0 | 3.0 | 65 | 87 | 65.7 | 59.5 | 30.010 | 7.26 | 0.6 | 278 | 0.00 | 0.00 | 0.00 | 0.00 |
| 05/08/26 7:52:22 AM | 34 | 2.0 | 3.0 | 65 | 87 | 65.7 | 59.6 | 30.010 | 7.26 | 0.6 | 278 | 0.00 | 0.00 | 0.00 | 0.00 |
| 05/08/26 7:53:29 AM | 32 | 2.0 | 3.0 | 65 | 87 | 65.7 | 59.8 | 30.009 | 7.26 | 0.6 | 281 | 0.00 | 0.00 | 0.00 | 0.00 |
| 05/08/26 7:54:21 AM | 34 | 1.0 | 3.0 | 65 | 87 | 65.7 | 59.8 | 30.008 | 7.26 | 0.6 | 287 | 0.00 | 0.00 | 0.00 | 0.00 |
| 05/08/26 7:55:34 AM | 38 | 1.0 | 3.0 | 65 | 86 | 65.7 | 60.0 | 30.009 | 7.26 | 0.6 | 294 | 0.00 | 0.00 | 0.00 | 0.00 |
| 05/08/26 7:56:23 AM | 36 | 1.0 | 3.0 | 65 | 86 | 65.7 | 60.0 | 30.008 | 7.26 | 0.6 | 294 | 0.00 | 0.00 | 0.00 | 0.00 |
| 05/08/26 7:57:15 AM | 37 | 3.0 | 4.0 | 65 | 86 | 65.7 | 60.2 | 30.008 | 7.26 | 0.7 | 299 | 0.00 | 0.00 | 0.00 | 0.00 |
| 05/08/26 7:58:25 AM | 34 | 2.0 | 4.0 | 65 | 86 | 65.7 | 60.2 | 30.007 | 7.26 | 0.7 | 306 | 0.00 | 0.00 | 0.00 | 0.00 |
| 05/08/26 7:59:17 AM | 36 | 2.0 | 4.0 | 65 | 86 | 65.7 | 60.3 | 30.008 | 7.26 | 0.7 | 309 | 0.00 | 0.00 | 0.00 | 0.00 |
| 05/08/26 8:00:30 AM | 35 | 1.0 | 4.0 | 65 | 86 | 65.7 | 60.4 | 30.008 | 7.26 | 0.7 | 315 | 0.00 | 0.00 | 0.00 | 0.00 |
| 05/08/26 8:01:22 AM | 36 | 2.0 | 4.0 | 65 | 85 | 65.7 | 60.4 | 30.008 | 7.26 | 0.7 | 318 | 0.00 | 0.00 | 0.00 | 0.00 |
| 05/08/26 8:02:35 AM | 37 | 2.0 | 4.0 | 65 | 85 | 65.7 | 60.5 | 30.008 | 7.26 | 0.7 | 322 | 0.00 | 0.00 | 0.00 | 0.00 |
| 05/08/26 8:03:21 AM | 36 | 0.0 | 4.0 | 65 | 85 | 65.7 | 60.6 | 30.007 | 7.26 | 0.7 | 323 | 0.00 | 0.00 | 0.00 | 0.00 |
| 05/08/26 8:04:34 AM | 38 | 0.0 | 4.0 | 65 | 85 | 65.8 | 60.7 | 30.007 | 7.26 | 0.8 | 327 | 0.00 | 0.00 | 0.00 | 0.00 |
| 05/08/26 8:05:26 AM | 32 | 4.0 | 4.0 | 65 | 85 | 65.8 | 60.7 | 30.009 | 7.26 | 0.8 | 330 | 0.00 | 0.00 | 0.00 | 0.00 |
| 05/08/26 8:06:18 AM | 35 | 1.0 | 4.0 | 65 | 85 | 65.8 | 60.8 | 30.009 | 7.26 | 0.8 | 336 | 0.00 | 0.00 | 0.00 | 0.00 |
| 05/08/26 8:07:32 AM | 38 | 2.0 | 4.0 | 65 | 85 | 65.8 | 60.9 | 30.009 | 7.26 | 0.8 | 341 | 0.00 | 0.00 | 0.00 | 0.00 |
| 05/08/26 8:08:24 AM | 36 | 0.0 | 4.0 | 65 | 84 | 65.8 | 61.0 | 30.010 | 7.26 | 0.8 | 339 | 0.00 | 0.00 | 0.00 | 0.00 |
| 05/08/26 8:09:31 AM | 35 | 1.0 | 4.0 | 65 | 84 | 65.8 | 61.1 | 30.008 | 7.26 | 0.8 | 343 | 0.00 | 0.00 | 0.00 | 0.00 |
| 05/08/26 8:10:23 AM | 34 | 0.0 | 4.0 | 65 | 84 | 65.8 | 61.1 | 30.009 | 7.26 | 0.8 | 346 | 0.00 | 0.00 | 0.00 | 0.00 |
| 05/08/26 8:11:36 AM | 36 | 0.0 | 4.0 | 65 | 84 | 65.9 | 61.2 | 30.008 | 7.26 | 0.9 | 353 | 0.00 | 0.00 | 0.00 | 0.00 |
| 05/08/26 8:12:28 AM | 35 | 1.0 | 4.0 | 65 | 84 | 65.8 | 61.3 | 30.006 | 7.26 | 0.9 | 357 | 0.00 | 0.00 | 0.00 | 0.00 |
| 05/08/26 8:13:17 AM | 38 | 0.0 | 4.0 | 65 | 84 | 65.8 | 61.3 | 30.007 | 7.26 | 0.9 | 357 | 0.00 | 0.00 | 0.00 | 0.00 |
| 05/08/26 8:14:27 AM | 32 | 1.0 | 4.0 | 65 | 84 | 65.9 | 61.4 | 30.005 | 7.26 | 0.9 | 362 | 0.00 | 0.00 | 0.00 | 0.00 |
| 05/08/26 8:15:41 AM | 35 | 1.0 | 4.0 | 65 | 83 | 65.9 | 61.5 | 30.007 | 7.26 | 0.9 | 364 | 0.00 | 0.00 | 0.00 | 0.00 |
| 05/08/26 8:16:33 AM | 36 | 1.0 | 4.0 | 65 | 83 | 65.9 | 61.6 | 30.006 | 7.26 | 0.9 | 369 | 0.00 | 0.00 | 0.00 | 0.00 |
| 05/08/26 8:17:24 AM | 32 | 1.0 | 4.0 | 65 | 83 | 65.9 | 61.7 | 30.005 | 7.26 | 1.0 | 373 | 0.00 | 0.00 | 0.00 | 0.00 |
| 05/08/26 8:18:35 AM | 38 | 0.0 | 4.0 | 65 | 83 | 65.9 | 61.8 | 30.005 | 7.26 | 1.0 | 376 | 0.00 | 0.00 | 0.00 | 0.00 |
| 05/08/26 8:19:27 AM | 36 | 4.0 | 4.0 | 65 | 83 | 65.9 | 61.9 | 30.006 | 7.26 | 1.0 | 380 | 0.00 | 0.00 | 0.00 | 0.00 |
| 05/08/26 8:20:34 AM | 38 | 2.0 | 4.0 | 65 | 82 | 66.0 | 62.0 | 30.005 | 7.26 | 1.0 | 385 | 0.00 | 0.00 | 0.00 | 0.00 |
| 05/08/26 8:21:26 AM | 36 | 2.0 | 4.0 | 65 | 82 | 66.0 | 62.0 | 30.005 | 7.26 | 1.0 | 390 | 0.00 | 0.00 | 0.00 | 0.00 |
| 05/08/26 8:22:18 AM | 38 | 1.0 | 4.0 | 65 | 82 | 66.0 | 62.1 | 30.005 | 7.26 | 1.0 | 390 | 0.00 | 0.00 | 0.00 | 0.00 |
| 05/08/26 8:23:31 AM | 37 | 0.0 | 4.0 | 65 | 81 | 66.0 | 62.1 | 30.005 | 7.26 | 1.0 | 396 | 0.00 | 0.00 | 0.00 | 0.00 |
| 05/08/26 8:24:23 AM | 36 | 2.0 | 4.0 | 65 | 81 | 66.0 | 62.2 | 30.006 | 7.26 | 1.1 | 397 | 0.00 | 0.00 | 0.00 | 0.00 |
| 05/08/26 8:25:30 AM | 34 | 2.0 | 4.0 | 65 | 81 | 66.0 | 62.3 | 30.005 | 7.26 | 1.1 | 404 | 0.00 | 0.00 | 0.00 | 0.00 |
| 05/08/26 8:26:22 AM | 38 | 2.0 | 4.0 | 65 | 81 | 66.0 | 62.4 | 30.006 | 7.26 | 1.1 | 404 | 0.00 | 0.00 | 0.00 | 0.00 |
| 05/08/26 8:27:35 AM | 32 | 0.0 | 5.0 | 65 | 81 | 66.0 | 62.5 | 30.005 | 7.26 | 1.1 | 411 | 0.00 | 0.00 | 0.00 | 0.00 |
| 05/08/26 8:28:27 AM | 38 | 2.0 | 5.0 | 65 | 81 | 66.0 | 62.6 | 30.005 | 7.26 | 1.1 | 413 | 0.00 | 0.00 | 0.00 | 0.00 |
| 05/08/26 8:29:19 AM | 32 | 2.0 | 5.0 | 65 | 80 | 66.1 | 62.7 | 30.004 | 7.26 | 1.1 | 418 | 0.00 | 0.00 | 0.00 | 0.00 |
| 05/08/26 8:30:54 AM | 38 | 1.0 | 5.0 | 65 | 80 | 66.1 | 62.7 | 30.005 | 7.26 | 1.2 | 425 | 0.00 | 0.00 | 0.00 | 0.00 |
| 05/08/26 8:31:24 AM | 31 | 0.0 | 5.0 | 65 | 80 | 66.1 | 62.8 | 30.003 | 7.26 | 1.2 | 431 | 0.00 | 0.00 | 0.00 | 0.00 |
| 05/08/26 8:32:35 AM | 35 | 0.0 | 5.0 | 65 | 80 | 66.1 | 62.9 | 30.003 | 7.26 | 1.2 | 431 | 0.00 | 0.00 | 0.00 | 0.00 |
| 05/08/26 8:33:30 AM | 35 | 0.0 | 5.0 | 65 | 80 | 66.1 | 63.0 | 30.001 | 7.26 | 1.2 | 431 | 0.00 | 0.00 | 0.00 | 0.00 |
| 05/08/26 8:34:19 AM | 38 | 0.0 | 5.0 | 65 | 80 | 66.1 | 63.1 | 30.002 | 7.26 | 1.2 | 434 | 0.00 | 0.00 | 0.00 | 0.00 |
| 05/08/26 8:35:32 AM | 34 | 1.0 | 5.0 | 65 | 79 | 66.1 | 63.2 | 30.000 | 7.26 | 1.3 | 438 | 0.00 | 0.00 | 0.00 | 0.00 |
| 05/08/26 8:36:21 AM | 35 | 1.0 | 5.0 | 65 | 79 | 66.2 | 63.2 | 30.000 | 7.26 | 1.3 | 445 | 0.00 | 0.00 | 0.00 | 0.00 |
| 05/08/26 8:37:31 AM | 36 | 1.0 | 5.0 | 65 | 79 | 66.2 | 63.3 | 30.002 | 7.26 | 1.3 | 448 | 0.00 | 0.00 | 0.00 | 0.00 |
| 05/08/26 8:38:26 AM | 36 | 1.0 | 5.0 | 65 | 79 | 66.2 | 63.4 | 30.001 | 7.26 | 1.3 | 450 | 0.00 | 0.00 | 0.00 | 0.00 |
| 05/08/26 8:39:18 AM | 34 | 0.0 | 5.0 | 65 | 79 | 66.2 | 63.4 | 30.002 | 7.26 | 1.3 | 454 | 0.00 | 0.00 | 0.00 | 0.00 |
| 05/08/26 8:40:31 AM | 35 | 2.0 | 5.0 | 65 | 78 | 66.2 | 63.5 | 30.004 | 7.26 | 1.3 | 457 | 0.00 | 0.00 | 0.00 | 0.00 |
| 05/08/26 8:41:23 AM | 37 | 1.0 | 5.0 | 65 | 79 | 66.3 | 63.6 | 30.001 | 7.26 | 1.3 | 457 | 0.00 | 0.00 | 0.00 | 0.00 |
| 05/08/26 8:42:30 AM | 39 | 1.0 | 5.0 | 65 | 78 | 66.3 | 63.7 | 30.000 | 7.26 | 1.3 | 464 | 0.00 | 0.00 | 0.00 | 0.00 |
| 05/08/26 8:43:23 AM | 37 | 2.0 | 5.0 | 65 | 78 | 66.3 | 63.8 | 30.001 | 7.26 | 1.3 | 471 | 0.00 | 0.00 | 0.00 | 0.00 |
| 05/08/26 8:44:36 AM | 35 | 4.0 | 5.0 | 65 | 78 | 66.3 | 63.9 | 30.000 | 7.26 | 1.4 | 475 | 0.00 | 0.00 | 0.00 | 0.00 |
| 05/08/26 8:45:28 AM | 36 | 2.0 | 5.0 | 65 | 77 | 66.3 | 64.0 | 30.002 | 7.26 | 1.4 | 475 | 0.00 | 0.00 | 0.00 | 0.00 |
| 05/08/26 8:46:17 AM | 37 | 2.0 | 5.0 | 65 | 77 | 66.4 | 64.0 | 30.003 | 7.26 | 1.4 | 483 | 0.00 | 0.00 | 0.00 | 0.00 |
| 05/08/26 8:47:27 AM | 36 | 1.0 | 5.0 | 65 | 77 | 66.3 | 64.1 | 30.002 | 7.26 | 1.5 | 485 | 0.00 | 0.00 | 0.00 | 0.00 |
| 05/08/26 8:48:16 AM | 36 | 2.0 | 5.0 | 65 | 77 | 66.3 | 64.2 | 30.001 | 7.26 | 1.5 | 485 | 0.00 | 0.00 | 0.00 | 0.00 |
| 05/08/26 8:49:29 AM | 35 | 1.0 | 5.0 | 65 | 77 | 66.4 | 64.3 | 29.999 | 7.26 | 1.5 | 490 | 0.00 | 0.00 | 0.00 | 0.00 |
| 05/08/26 8:50:21 AM | 36 | 0.0 | 5.0 | 65 | 77 | 66.4 | 64.4 | 30.001 | 7.26 | 1.5 | 496 | 0.00 | 0.00 | 0.00 | 0.00 |
| 05/08/26 8:51:35 AM | 38 | 2.0 | 5.0 | 65 | 76 | 66.4 | 64.5 | 30.001 | 7.26 | 1.6 | 499 | 0.00 | 0.00 | 0.00 | 0.00 |
| 05/08/26 8:52:24 AM | 37 | 3.0 | 5.0 | 65 | 76 | 66.4 | 64.7 | 29.999 | 7.26 | 1.6 | 501 | 0.00 | 0.00 | 0.00 | 0.00 |
| 05/08/26 8:53:34 AM | 34 | 2.0 | 5.0 | 65 | 76 | 66.5 | 64.7 | 29.999 | 7.26 | 1.6 | 503 | 0.00 | 0.00 | 0.00 | 0.00 |
| 05/08/26 8:54:29 AM | 38 | 3.0 | 5.0 | 65 | 75 | 66.5 | 64.8 | 29.999 | 7.26 | 1.6 | 504 | 0.00 | 0.00 | 0.00 | 0.00 |
| 05/08/26 8:55:18 AM | 30 | 2.0 | 5.0 | 65 | 75 | 66.5 | 64.9 | 30.000 | 7.26 | 1.6 | 504 | 0.00 | 0.00 | 0.00 | 0.00 |
| 05/08/26 8:56:31 AM | 34 | 4.0 | 5.0 | 65 | 76 | 66.5 | 65.0 | 29.998 | 7.26 | 1.6 | 510 | 0.00 | 0.00 | 0.00 | 0.00 |
| 05/08/26 8:57:23 AM | 36 | 3.0 | 5.0 | 65 | 76 | 66.5 | 65.1 | 29.997 | 7.26 | 1.6 | 510 | 0.00 | 0.00 | 0.00 | 0.00 |
| 05/08/26 8:58:30 AM | 34 | 3.0 | 5.0 | 65 | 75 | 66.5 | 65.3 | 30.001 | 7.26 | 1.7 | 519 | 0.00 | 0.00 | 0.00 | 0.00 |
University Police wind advisory reference
For campus closure information please call the campus Emergency Hotline at (909) 537-5999
© All rights reserved. Unauthorized duplication or distribution is prohibited
Never base important decisions on this or any weather information obtained from the Internet
California State University, San Bernardino
5500 University Parkway, San Bernardino, CA. 92407
Phone: (909) 537-5108, Email: Weather Webmaster
Last Updated: